GEFSMA_500_meanwind_084.txt.gz
Wind_Speed
15 15 15 16 16 16 16 17 18 19 19 20 22 23 23 22 22 21 20 19 18 17 18 18 18 19 18 19 18 18 18 19 18 17 16 15 14 13 12 11 10 9 8
14 13 13 14 15 15 16 17 18 18 19 20 21 22 23 23 21 22 21 20 19 19 18 19 19 20 21 20 21 20 20 21 20 20 18 18 16 15 14 13 12 11 10
12 12 13 14 15 16 17 17 17 18 18 19 20 21 22 22 22 22 22 21 20 19 19 19 19 21 21 22 22 23 22 23 23 22 21 21 20 18 17 16 15 14 12
12 13 14 15 16 17 16 17 18 18 18 18 18 19 20 21 22 23 23 22 22 21 21 21 20 21 22 22 23 24 24 24 25 25 24 23 23 21 20 19 18 17 15
13 13 14 15 15 16 16 16 17 18 18 17 17 18 19 20 22 22 23 23 22 23 23 23 23 23 23 23 24 25 26 26 26 27 28 26 25 24 23 22 21 20 18
12 13 13 14 14 14 14 15 15 16 16 16 16 17 18 19 21 22 22 23 23 23 24 25 25 25 25 26 26 26 26 27 28 28 29 29 28 27 26 25 24 23 21
11 12 12 12 13 14 14 14 14 15 15 15 16 17 18 19 20 21 22 22 23 24 25 25 26 27 27 28 28 28 28 28 29 30 31 31 31 30 29 27 26 26 25
11 12 12 13 13 14 14 14 15 15 15 16 17 18 19 20 20 21 22 23 24 25 25 26 27 28 29 30 30 30 30 30 30 30 31 32 33 33 32 31 29 28 27
12 12 13 13 14 14 15 15 15 16 16 17 17 18 19 21 21 22 22 23 24 25 26 26 27 28 29 30 31 32 32 31 32 32 33 33 34 35 35 34 33 31 30
12 13 13 14 15 16 16 16 17 17 17 18 18 19 20 21 22 23 24 24 25 26 27 27 28 29 30 31 32 32 34 34 34 34 35 35 35 36 37 36 36 34 33
12 13 14 15 16 17 17 17 17 18 18 19 20 20 20 21 22 23 25 25 26 27 28 29 29 30 32 33 33 33 34 35 35 36 37 36 37 37 37 37 38 37 36
13 14 15 16 17 18 19 19 19 20 20 21 21 22 23 24 24 25 26 27 28 28 29 30 31 31 32 33 34 35 36 36 36 37 38 38 38 39 38 39 39 40 39
14 15 16 17 19 20 20 21 21 21 22 22 23 24 25 26 26 27 27 28 29 30 31 32 32 33 33 34 35 36 36 37 38 38 38 39 40 40 39 39 39 40 41
15 16 17 18 20 21 21 22 23 24 24 24 25 26 26 27 28 29 29 30 31 32 33 34 35 35 35 36 36 36 37 38 38 39 40 40 40 41 41 40 40 40 41
17 18 19 20 21 22 24 25 26 26 26 27 27 28 28 28 29 30 31 32 32 33 34 36 37 37 37 38 38 38 38 39 39 40 41 42 42 41 42 42 42 41 41
18 19 20 22 23 25 26 28 28 29 29 29 29 30 30 30 31 32 32 33 34 34 34 37 38 38 38 39 40 40 40 41 40 41 41 42 43 42 42 43 44 43 42
20 21 22 24 26 28 29 30 30 31 31 32 32 32 32 32 32 33 34 34 35 35 35 36 38 39 39 39 40 41 41 42 42 42 42 43 44 44 44 44 44 44 43
22 23 25 27 28 29 31 32 33 33 33 34 34 34 34 34 34 35 35 36 36 36 35 36 38 40 40 41 41 41 42 42 43 43 43 43 44 45 45 45 45 45 45
25 26 28 29 30 31 33 34 35 35 35 35 35 35 35 36 36 36 36 36 36 36 36 35 37 39 40 41 42 42 42 42 43 44 44 44 45 45 46 47 47 46 46
27 29 30 31 32 33 34 36 36 37 37 37 37 37 37 37 36 36 35 35 35 35 35 35 36 37 39 40 41 42 43 43 44 45 45 45 46 46 46 47 47 47 47
28 30 32 32 33 34 36 37 38 38 38 38 39 38 38 37 37 36 35 35 35 35 35 35 35 36 37 39 40 41 42 43 44 45 46 46 46 46 47 47 47 48 47
31 32 33 34 35 36 38 38 38 39 39 40 39 39 38 38 37 36 36 35 35 35 35 35 34 35 36 38 40 41 42 43 44 46 46 46 46 46 46 47 47 48 48
32 33 35 36 37 37 38 39 40 40 41 41 40 39 38 38 37 37 36 35 35 34 34 34 34 34 35 36 38 39 41 42 43 45 46 46 46 46 46 47 47 48 48
34 36 37 37 37 37 38 40 41 41 41 41 41 39 38 38 37 37 35 34 34 34 34 33 33 33 34 36 37 38 39 40 41 43 45 45 46 46 46 47 47 47 48
37 38 38 38 38 39 40 41 42 42 41 41 41 40 39 38 38 36 35 33 33 33 33 33 32 32 32 34 36 37 38 39 40 43 45 45 46 47 47 47 47 47 48
39 39 39 40 40 41 42 42 42 42 42 41 41 41 39 38 37 36 34 33 33 33 32 32 33 33 33 34 35 37 38 39 39 42 45 46 46 47 47 47 47 48 48

GEFSMA_500_meanwind_090.txt.gz
Wind_Speed
14 14 15 15 15 15 15 15 15 16 16 15 15 16 16 16 16 17 17 18 18 17 17 17 16 16 17 18 18 18 18 18 17 17 16 15 14 13 12 11 10 9 7
14 14 14 13 14 15 16 16 16 16 16 16 16 16 16 16 16 16 17 18 19 19 19 19 18 17 18 20 19 20 20 20 20 19 19 18 17 15 14 13 12 11 10
12 13 13 13 13 14 15 16 16 16 16 16 16 16 16 16 16 16 17 18 18 19 20 20 19 19 18 20 21 21 22 21 22 22 21 21 20 18 17 16 15 14 12
10 10 11 12 12 13 13 14 15 15 15 16 16 16 16 16 16 16 16 17 18 19 20 20 20 20 20 21 22 22 23 23 24 24 24 23 22 21 20 18 17 16 15
9 9 10 10 10 11 12 13 14 14 15 15 16 16 16 15 15 16 16 17 19 19 20 21 21 22 22 22 22 23 23 24 24 25 26 26 25 24 23 21 20 19 18
8 9 9 9 10 11 12 13 13 13 14 15 15 15 15 15 15 16 16 17 18 19 21 21 22 23 24 24 24 24 25 25 25 25 27 27 28 27 26 25 24 22 21
7 8 8 9 9 10 10 11 11 12 13 13 14 14 14 14 15 15 16 17 18 19 20 22 23 24 25 26 26 26 26 26 27 27 27 28 29 30 29 28 27 25 24
7 7 8 8 9 10 10 11 12 12 12 13 14 14 14 14 15 16 16 17 18 19 20 22 23 24 25 26 28 28 28 29 29 29 29 29 30 31 31 31 31 29 28
6 7 7 8 9 10 10 11 12 12 13 13 14 14 15 15 15 16 17 18 19 20 21 22 23 24 26 27 28 29 30 30 31 31 31 31 32 33 33 33 33 33 31
6 7 8 9 9 10 11 12 12 13 13 14 14 15 15 16 16 16 17 18 20 21 22 23 24 25 26 27 28 30 31 32 32 32 32 32 32 33 34 35 35 35 34
6 6 7 8 9 10 11 13 13 14 14 15 15 16 17 17 18 19 19 20 21 22 23 25 26 26 27 28 29 30 32 33 33 34 35 35 34 34 35 36 37 37 37
5 6 8 9 10 11 13 14 15 16 16 17 17 17 18 19 20 20 21 22 23 24 25 26 27 28 29 29 30 31 32 33 34 35 36 37 37 37 37 37 38 39 38
6 7 8 9 11 12 14 15 16 18 18 19 19 19 20 20 21 21 22 23 24 25 26 27 28 29 30 31 32 33 34 35 35 37 38 38 38 39 39 39 39 40 41
6 8 9 11 12 14 15 17 18 19 20 21 21 21 22 22 22 22 23 24 25 26 27 28 29 31 32 33 34 35 36 37 37 38 39 40 41 41 41 41 41 41 42
8 9 11 13 14 16 17 19 20 21 22 23 23 23 24 24 24 25 25 25 25 26 28 30 30 31 32 34 35 37 38 39 39 40 41 41 42 42 42 43 43 43 43
10 12 13 15 16 18 19 21 22 23 25 25 26 26 25 25 26 26 26 26 26 26 28 31 32 33 33 35 36 38 39 41 42 42 43 43 43 43 44 44 44 44 44
13 14 16 17 18 20 22 23 25 26 26 27 28 28 27 28 28 28 28 28 28 27 28 30 33 34 34 35 36 38 39 41 43 44 44 45 45 45 45 45 45 45 45
15 17 18 19 21 22 24 25 26 28 28 29 29 29 29 30 30 30 30 30 29 29 29 30 32 34 35 36 37 38 39 41 43 44 45 46 47 47 47 47 47 47 46
18 19 21 22 23 24 26 27 28 29 30 31 31 31 31 32 32 32 32 32 31 31 31 31 32 34 35 37 37 38 40 41 43 44 46 47 48 49 49 48 48 48 48
21 22 23 24 25 27 28 29 30 31 31 32 32 33 33 33 34 34 34 34 34 33 33 33 33 34 35 37 37 38 39 40 42 44 46 47 49 49 50 50 49 49 49
24 25 26 27 28 29 30 31 32 33 33 34 34 34 35 35 35 35 35 35 35 35 35 35 34 34 35 37 37 37 37 38 40 42 44 46 48 49 50 51 51 51 50
28 29 29 30 31 32 33 34 35 35 35 35 35 36 36 36 36 36 36 36 37 37 37 36 35 35 35 36 37 37 37 37 38 40 42 44 46 48 50 51 51 52 52
31 31 32 33 34 35 36 36 37 36 36 36 37 37 38 38 37 37 38 38 38 38 37 36 35 35 36 36 37 36 37 37 37 39 41 41 45 46 48 50 51 52 52
33 34 35 36 37 37 38 38 38 38 38 38 39 39 40 39 39 39 39 39 39 39 38 36 35 36 36 37 37 36 36 36 36 38 40 40 42 45 47 49 50 52 52
35 36 37 38 39 40 40 40 40 40 40 41 41 41 41 41 41 41 40 40 40 40 39 37 36 36 36 36 37 36 36 36 35 36 38 38 40 43 45 47 48 50 52
38 38 39 40 40 41 42 42 42 42 42 43 43 43 43 43 42 43 42 41 41 40 39 38 37 37 37 37 36 36 36 36 35 36 38 38 39 41 42 45 47 49 50

GEFSMA_500_meanwind_096.txt.gz
Wind_Speed
8 8 9 9 9 9 9 9 9 8 9 9 9 9 10 11 12 13 14 15 16 16 17 18 17 17 17 18 18 18 19 18 19 18 17 16 15 14 13 11 10 9 8
8 8 8 8 8 8 8 8 8 8 9 9 9 10 10 11 12 13 14 15 16 17 17 18 18 18 18 19 19 19 19 19 20 21 20 19 18 17 15 14 12 11 10
7 7 7 7 7 7 7 8 8 8 9 9 10 10 11 12 13 13 13 14 16 16 17 18 18 18 18 19 20 20 21 21 22 22 22 22 21 20 18 17 15 14 13
6 6 6 6 6 6 6 6 7 8 9 10 10 10 11 12 12 13 14 14 15 16 17 18 19 19 19 19 19 21 21 23 23 23 24 24 23 22 21 20 18 17 15
5 5 5 5 5 6 6 7 7 8 8 8 9 10 11 11 12 13 14 14 15 16 17 17 18 19 19 20 20 20 21 22 23 24 24 25 25 25 24 23 21 20 18
4 4 4 5 5 5 5 6 7 7 7 8 8 8 9 10 11 11 13 14 15 15 16 18 18 18 19 20 21 21 22 23 24 23 24 24 25 27 27 26 25 23 21
3 3 3 3 3 3 4 5 6 7 7 7 7 8 8 8 9 10 11 13 14 14 15 16 18 19 20 21 21 22 22 24 24 24 24 25 26 28 29 28 28 27 25
2 2 2 1 2 2 3 4 6 6 7 7 8 8 8 8 9 10 11 12 13 14 15 16 17 18 20 21 22 22 23 24 25 26 26 26 26 27 29 30 29 29 28
2 1 0 1 1 2 3 5 6 7 7 8 8 8 9 9 10 11 12 12 13 14 15 16 17 18 20 21 22 23 24 25 26 27 28 28 29 29 29 30 31 31 31
2 1 0 0 1 2 3 5 6 7 8 8 9 9 10 10 11 12 12 13 14 15 16 17 18 19 20 21 22 24 24 25 26 27 28 29 30 31 31 32 32 32 32
3 2 1 0 1 2 3 5 6 8 9 10 10 11 11 11 12 13 13 14 14 15 17 18 19 20 21 22 24 24 26 26 27 28 29 30 31 31 32 33 33 34 34
4 3 2 2 2 3 4 6 7 8 10 11 12 12 13 13 14 15 15 16 16 17 18 19 20 21 22 23 24 25 27 27 28 29 30 31 32 33 33 34 35 36 36
4 4 4 4 4 5 6 7 8 9 10 12 13 13 14 15 16 17 17 18 18 19 19 20 20 21 23 24 25 26 28 29 30 30 31 32 33 34 35 35 36 37 38
6 6 6 6 6 7 8 9 10 11 12 13 14 15 15 16 17 18 18 19 20 20 21 21 21 22 23 24 25 27 28 30 31 32 33 33 34 35 36 37 38 39 40
9 9 9 9 10 10 11 11 12 13 14 15 16 17 17 18 18 19 19 20 21 21 22 22 22 23 23 24 25 27 29 30 32 33 34 35 36 36 38 39 39 41 41
12 12 12 13 13 13 13 14 15 16 17 18 18 19 19 20 20 21 21 22 22 23 24 24 24 24 24 25 26 28 29 31 32 34 35 37 38 39 40 41 41 41 42
14 15 15 15 16 16 16 17 18 19 19 20 21 21 22 22 22 23 23 23 23 24 25 25 26 26 26 26 26 28 29 31 32 34 35 37 39 40 42 42 43 44 44
17 18 18 19 19 19 20 20 21 21 22 23 23 24 24 25 25 25 25 25 25 26 26 26 27 27 28 28 28 28 29 30 32 33 35 37 39 40 42 43 44 45 46
21 21 22 22 23 23 23 23 24 24 25 25 26 27 27 27 27 27 27 27 27 27 28 28 28 29 30 30 30 30 30 30 31 33 34 36 38 40 42 44 45 46 47
24 25 25 26 26 26 26 26 27 27 27 28 28 29 29 29 29 29 29 29 30 30 29 29 30 31 31 32 32 32 32 32 32 33 34 35 37 39 41 43 45 47 48
28 28 28 29 29 29 29 29 29 30 30 30 30 30 31 31 31 32 32 32 32 32 32 32 32 33 33 33 33 33 33 33 34 34 35 36 37 38 40 42 44 46 48
31 31 31 31 31 31 31 31 32 32 32 32 32 32 33 33 33 34 34 34 34 34 34 34 34 35 35 35 35 35 35 34 35 36 36 36 37 37 39 41 42 44 46
32 32 32 32 32 32 33 33 34 34 34 34 34 34 35 35 35 35 36 36 37 37 37 37 37 37 37 37 37 37 36 36 36 37 37 37 38 38 39 40 41 42 44
34 33 33 33 33 34 34 35 35 35 35 35 36 37 37 37 38 38 38 38 38 39 39 39 39 38 38 39 38 38 38 37 37 38 39 38 39 40 39 39 40 41 43
34 34 34 34 35 35 36 37 38 38 38 38 38 39 40 40 40 40 41 41 41 41 42 41 41 40 40 40 40 40 40 39 38 39 40 40 40 41 41 40 40 40 42
36 36 36 36 37 37 38 40 41 41 41 41 41 42 42 42 43 43 44 44 44 44 44 44 43 43 42 42 42 42 41 41 40 39 41 41 41 41 41 41 41 41 41

GEFSMA_500_meanwind_102.txt.gz
Wind_Speed
9 8 8 7 5 5 5 5 5 5 5 6 7 8 8 9 9 9 10 11 13 13 13 13 13 14 15 16 15 15 16 16 17 16 15 14 13 11 10 9 8 7 6
8 7 6 5 4 4 4 4 4 5 5 6 7 7 8 8 9 9 9 10 11 12 13 14 14 14 15 15 16 16 17 18 18 18 17 16 16 15 13 12 11 10 9
6 5 5 5 4 4 4 4 5 5 5 5 6 6 7 7 8 9 9 10 10 11 11 13 14 15 15 15 15 16 17 18 19 19 20 18 18 18 17 15 14 12 11
5 4 4 4 4 4 4 4 5 5 5 5 5 5 6 6 7 7 8 9 10 10 11 12 13 14 15 16 16 16 17 17 18 19 20 20 19 20 20 19 17 16 14
4 3 3 2 3 3 3 4 4 5 5 5 6 6 6 6 7 7 7 8 9 10 10 11 12 12 13 15 16 16 17 18 19 19 19 20 20 21 22 21 20 19 17
3 2 2 1 2 2 3 4 5 5 6 6 6 6 6 6 6 6 7 7 8 9 9 9 11 12 13 13 15 15 16 16 18 19 20 19 20 21 22 23 23 22 21
2 2 1 1 1 1 2 4 5 6 6 6 7 7 7 7 7 7 7 8 8 9 9 9 9 10 12 13 15 15 16 16 16 18 20 20 20 20 22 23 24 24 24
2 2 1 0 0 1 2 3 5 5 6 7 7 8 8 8 8 8 8 8 9 9 10 10 11 11 12 12 13 14 15 16 17 17 18 20 21 21 21 23 25 26 25
2 2 1 1 1 1 2 3 4 5 6 7 8 8 9 8 9 9 9 9 9 10 11 11 12 12 12 12 13 14 15 16 17 18 18 19 21 22 22 23 24 25 26
3 2 2 1 1 1 2 3 4 5 6 7 8 9 10 10 10 10 10 10 11 11 12 13 13 13 13 13 13 15 16 16 17 18 19 20 21 21 22 23 25 26 27
4 3 2 2 1 0 1 2 3 5 6 7 9 10 11 11 11 11 11 12 12 12 13 14 14 14 14 15 15 16 16 17 18 19 19 20 21 22 22 23 25 26 28
5 4 4 3 2 1 2 3 4 5 7 8 9 10 11 12 12 13 13 13 13 14 14 15 15 15 16 16 17 17 17 18 19 20 20 21 21 22 23 24 25 26 27
7 6 5 5 4 4 4 5 6 7 8 9 10 11 12 13 14 14 14 14 15 15 15 15 16 16 17 17 18 18 18 19 19 20 21 22 23 24 24 25 26 27 28
8 8 7 7 7 7 7 8 8 9 10 11 12 13 14 15 16 16 16 16 17 17 16 16 16 17 17 18 18 19 19 20 21 21 22 23 24 25 26 26 27 28 29
10 10 10 10 10 10 10 11 12 13 13 14 15 16 17 17 18 18 18 19 19 19 18 18 18 18 19 19 19 20 21 21 22 23 23 24 25 26 27 28 29 29 30
12 12 12 12 13 14 14 15 16 16 16 18 19 19 20 20 20 21 21 21 21 21 21 21 20 21 21 21 21 21 22 22 23 24 24 25 26 27 28 28 30 31 32
13 14 14 15 16 17 17 18 19 20 20 21 22 23 23 23 23 23 23 23 23 23 23 23 23 23 23 23 22 22 23 23 24 25 25 26 27 27 28 29 30 31 32
16 16 17 18 19 20 21 21 22 23 24 25 25 26 26 26 26 26 26 25 25 25 25 26 26 25 25 24 24 24 25 25 25 25 26 27 27 28 29 29 30 31 33
19 20 20 21 22 23 24 24 25 26 27 28 28 28 29 29 29 28 28 28 28 27 28 28 28 27 27 27 26 26 26 26 27 27 27 27 28 29 30 30 31 31 33
22 23 24 24 25 26 26 27 28 29 29 30 30 31 31 31 31 31 30 30 30 30 30 30 30 30 29 29 29 28 28 28 29 29 29 28 28 29 30 30 31 32 33
24 25 26 27 27 28 29 30 31 31 32 32 32 33 33 33 33 32 32 32 32 32 32 32 32 32 31 31 31 31 31 30 30 31 30 30 30 29 30 31 32 32 33
27 27 28 29 30 30 31 32 33 33 34 34 34 34 34 34 34 34 34 34 34 34 34 34 34 34 33 33 33 33 33 33 32 33 32 31 32 31 32 32 32 33 34
29 30 31 31 31 32 34 35 35 35 35 36 36 36 36 36 36 36 36 36 36 37 37 36 36 36 36 36 36 35 35 35 34 35 35 33 34 33 33 33 33 33 34
31 32 33 33 34 34 34 36 37 38 37 37 38 38 38 38 38 39 39 38 38 39 40 40 39 38 38 39 39 39 38 38 37 37 38 36 36 36 35 35 35 35 36
34 34 35 35 36 36 37 38 38 38 38 39 39 39 40 41 41 42 42 42 41 42 42 42 41 41 41 41 42 42 41 41 39 39 40 40 38 38 38 37 38 38 37
36 36 37 38 38 38 38 39 39 40 40 41 41 41 42 43 44 44 45 45 44 44 45 44 44 44 43 43 44 45 45 45 43 42 42 43 42 41 40 39 40 40 39

GEFSMA_500_meanwind_108.txt.gz
Wind_Speed
10 9 8 7 7 6 5 5 5 6 6 7 7 7 6 5 5 5 5 5 6 6 7 8 9 9 9 10 11 11 11 10 10 11 11 11 11 11 10 9 9 8 7
9 8 7 6 5 5 4 3 3 4 4 5 5 5 5 5 5 5 4 4 5 5 6 7 8 9 9 10 11 11 12 12 12 12 13 13 13 13 12 12 11 10 10
7 7 6 5 4 4 3 3 2 2 3 4 3 3 3 3 4 4 4 4 4 5 5 6 7 8 9 10 11 11 12 12 12 13 14 14 15 15 14 14 14 13 12
6 5 5 4 4 3 3 3 2 1 1 2 2 2 2 2 3 3 3 3 4 4 5 5 6 7 8 9 10 11 12 12 13 14 14 15 16 16 17 16 16 16 15
6 5 5 4 4 3 2 2 1 0 0 0 1 2 2 2 2 2 3 3 3 4 4 5 6 6 7 8 9 10 11 11 12 14 15 15 16 17 18 18 18 18 18
7 6 6 5 4 4 3 3 3 3 2 2 2 2 2 2 2 2 2 3 3 3 4 4 5 6 7 8 9 9 9 10 11 13 14 16 16 17 18 19 19 20 20
7 7 7 7 6 5 5 4 4 4 4 3 3 3 3 3 4 3 2 2 2 3 4 4 4 4 5 6 7 8 9 10 12 12 13 15 17 17 18 18 19 21 22
8 8 8 8 7 6 5 5 4 4 4 3 3 3 4 5 5 4 4 3 3 3 4 4 4 4 4 5 7 8 9 10 11 12 13 15 16 17 18 20 20 21 22
10 9 9 8 8 7 6 5 5 4 3 4 4 4 5 6 6 5 5 4 4 4 4 4 4 4 5 5 5 6 8 9 11 12 13 14 15 17 18 20 21 21 22
10 9 9 9 8 7 7 6 5 4 3 3 4 4 5 5 5 6 6 5 5 5 5 5 5 5 5 6 6 7 8 8 9 11 13 14 15 15 17 19 20 21 22
11 10 9 9 9 8 7 6 5 4 3 2 2 3 3 4 5 5 6 6 6 6 5 6 6 6 6 6 6 7 8 8 9 10 11 13 14 15 16 18 19 20 21
12 11 10 10 9 8 7 6 5 4 2 1 0 1 2 3 4 5 6 6 7 7 6 7 7 7 7 7 7 8 8 9 10 11 12 13 14 15 16 18 18 20 21
13 12 11 11 10 9 8 7 6 5 4 3 3 3 3 4 5 6 7 7 7 8 8 8 8 8 8 9 9 9 10 10 11 12 13 14 15 16 17 18 19 21 22
13 13 12 12 11 10 10 9 8 8 7 7 6 7 7 7 7 8 9 9 9 10 10 9 10 10 10 10 11 11 11 12 12 13 14 15 16 17 18 18 20 22 23
14 14 14 13 13 12 12 12 11 11 10 10 10 10 10 11 11 11 12 12 12 12 12 12 12 12 12 13 13 14 14 14 14 15 15 16 17 17 18 19 21 22 23
16 15 15 15 14 14 14 14 14 14 14 14 14 14 14 14 14 15 15 15 15 15 15 15 15 15 15 16 16 16 16 17 17 17 17 17 18 19 20 20 21 22 24
17 17 17 16 17 17 17 17 17 17 17 17 17 17 18 18 18 18 18 18 18 18 18 18 18 18 18 18 18 19 19 19 19 19 19 19 20 21 21 22 23 23 24
19 19 19 19 19 19 19 20 20 20 20 20 21 21 21 21 21 21 21 21 21 21 20 21 21 21 21 21 21 22 22 22 22 22 22 22 22 23 23 23 24 25 26
20 21 21 22 22 22 22 22 22 23 23 23 24 24 24 24 24 24 24 24 24 24 24 24 24 24 24 24 24 24 25 25 25 25 25 25 25 25 26 26 26 27 28
22 23 23 23 24 24 24 25 25 26 26 27 27 27 27 27 27 27 27 27 27 27 27 27 27 27 27 27 27 27 27 27 27 27 28 28 28 28 28 29 29 29 29
24 25 25 26 26 26 27 27 28 28 29 30 30 30 30 30 30 30 30 30 30 30 30 30 30 30 30 30 30 30 30 30 30 31 31 31 31 31 31 31 31 31 31
24 25 27 28 28 29 30 30 31 31 31 32 33 33 33 33 33 33 32 32 32 32 32 33 32 33 33 33 34 34 34 33 33 34 34 33 34 33 33 33 33 34 33
27 27 28 29 30 32 33 34 33 33 34 34 34 34 35 35 35 35 35 35 34 34 35 35 35 35 36 37 37 37 37 37 36 37 37 36 37 36 36 36 36 36 36
29 29 30 31 32 32 33 34 35 35 35 35 36 36 37 37 38 38 37 37 37 37 38 38 38 38 39 40 41 41 41 41 40 40 41 40 40 40 39 39 39 38 38
29 30 31 31 32 34 35 36 36 37 37 37 38 38 39 38 39 40 39 39 39 40 41 41 41 41 41 42 43 44 44 45 43 42 44 44 44 44 42 41 41 42 41
31 32 33 34 34 35 36 36 37 36 36 37 37 38 38 39 40 41 41 41 41 42 43 44 44 44 44 45 46 48 48 49 48 46 46 48 48 48 46 44 44 44 45

GEFSMA_500_meanwind_114.txt.gz
Wind_Speed
10 9 9 9 9 8 7 6 5 4 4 4 4 4 4 4 4 3 4 4 4 5 6 7 7 8 9 9 10 10 10 10 10 9 10 10 10 9 9 8 7 7 6
11 10 10 9 8 7 6 4 4 3 3 3 3 3 3 4 4 3 3 4 4 5 5 6 7 8 8 9 10 11 11 11 11 11 11 11 11 11 10 10 9 9 8
11 10 9 8 7 6 5 4 3 2 2 1 1 2 3 3 3 3 3 3 4 5 5 5 6 7 9 9 9 10 11 11 11 12 12 12 12 12 12 12 12 11 11
11 9 8 7 6 5 4 3 2 1 1 1 1 1 2 2 2 2 2 3 3 4 5 5 6 7 8 9 10 10 10 11 11 11 12 13 14 14 14 14 13 13 13
10 9 8 7 6 5 4 3 2 1 1 1 1 1 1 1 1 1 2 2 3 3 4 5 6 6 6 7 8 9 10 10 11 11 12 13 14 15 15 15 15 15 15
10 9 8 7 6 5 4 3 2 1 1 1 1 1 1 1 0 1 1 2 3 3 3 4 4 5 6 6 7 8 9 10 10 10 11 12 14 15 15 16 16 17 17
10 9 8 8 7 6 4 4 3 2 2 2 2 2 2 1 1 1 0 1 1 2 2 3 3 4 5 6 6 7 8 9 10 10 11 11 12 14 15 16 16 17 17
11 10 9 8 8 7 5 4 3 3 2 2 2 2 2 2 1 1 1 0 0 1 1 2 3 4 5 6 6 7 7 8 9 10 11 11 12 13 15 16 16 17 18
12 11 10 9 8 8 6 5 4 3 3 2 2 2 2 2 2 2 2 1 1 1 1 2 3 3 4 5 6 6 7 8 9 10 11 11 12 13 14 16 18 18 19
13 12 10 10 9 9 7 6 5 5 4 3 2 1 0 1 1 1 1 2 2 2 2 3 3 3 4 5 5 6 7 7 9 10 11 11 12 13 14 16 17 18 20
14 13 12 11 10 10 9 8 7 6 5 4 3 2 2 1 1 2 2 3 3 4 4 4 4 4 4 5 5 6 7 8 9 10 11 12 12 13 14 15 16 17 19
15 14 13 12 11 11 10 9 8 8 7 6 5 4 3 3 3 3 4 4 5 5 6 6 6 6 6 7 7 7 8 9 9 10 11 12 12 13 14 15 16 18 19
16 15 14 13 13 12 12 11 10 10 9 8 7 7 6 6 6 6 6 6 7 7 8 8 9 9 9 9 9 9 9 10 11 11 12 12 13 14 15 16 16 17 19
16 16 16 15 14 13 13 12 12 12 11 11 10 10 9 9 9 9 9 9 10 10 11 11 11 12 12 12 12 12 12 13 13 14 14 14 15 16 16 17 17 18 19
16 17 17 17 16 15 15 15 14 14 13 13 13 13 13 13 13 13 13 13 13 14 14 14 14 15 15 15 15 16 16 16 16 16 17 17 17 18 18 19 19 20 20
17 18 18 18 18 17 17 17 17 17 17 17 17 17 17 17 17 17 17 17 18 18 18 18 18 18 18 18 18 19 19 19 19 19 19 19 20 20 20 21 21 22 22
19 19 19 20 20 20 20 20 20 20 20 20 21 21 21 21 21 21 21 22 22 22 22 22 22 22 22 22 22 22 22 23 22 22 22 22 22 23 23 23 23 24 24
20 21 21 22 22 22 23 23 23 23 23 24 24 24 25 25 25 25 26 26 26 26 26 26 25 26 26 26 26 26 26 26 26 26 26 26 26 26 26 26 26 26 27
21 21 22 23 24 25 25 25 26 26 26 27 27 28 28 29 29 29 29 30 30 30 30 30 30 29 29 29 29 29 29 30 30 30 30 29 29 29 29 29 29 29 29
21 23 24 25 26 27 27 28 28 29 29 30 30 31 32 32 33 33 33 34 34 34 34 34 34 33 33 33 33 33 33 33 33 33 33 33 33 33 33 32 32 32 32
22 24 25 27 28 29 30 30 31 31 32 32 33 34 35 35 36 36 37 37 37 37 37 37 37 36 36 36 37 36 36 37 37 37 37 37 37 36 36 36 36 36 36
23 24 27 28 29 30 32 33 34 34 35 36 35 36 37 38 38 39 39 40 40 40 40 39 39 39 39 40 40 40 40 40 40 41 41 40 41 40 40 40 40 39 39
24 26 27 29 31 31 32 34 34 35 36 37 38 38 39 40 41 41 41 41 42 42 42 42 42 41 42 44 44 44 44 44 43 44 45 43 44 44 44 43 43 43 43
27 28 29 30 32 33 35 36 37 37 37 38 39 40 41 42 42 43 43 44 44 44 44 44 44 44 45 46 47 47 46 46 45 46 48 46 46 47 47 47 47 47 47
29 30 31 33 33 34 36 37 38 39 40 41 41 42 43 43 44 45 45 45 45 46 46 46 46 47 47 48 49 49 49 49 48 47 49 49 48 49 49 49 50 51 51
30 31 33 34 35 37 38 38 40 42 43 43 43 44 44 45 46 47 47 47 47 47 48 48 48 48 48 49 50 51 51 51 51 50 50 52 52 53 52 51 52 53 54

GEFSMA_500_meanwind_120.txt.gz
Wind_Speed
7 6 5 4 4 4 4 2 2 2 1 2 2 2 3 3 3 4 4 4 5 6 6 6 8 8 8 9 9 10 10 10 10 10 10 10 10 9 8 8 7 7 6
7 6 5 4 4 4 3 2 2 2 2 2 2 1 2 2 3 4 4 4 4 5 6 5 6 7 7 8 9 10 11 11 11 11 11 11 11 11 10 10 9 8 8
8 7 6 5 4 3 3 3 2 2 2 2 2 1 1 1 2 3 3 4 4 4 5 5 5 6 7 8 8 9 10 10 11 11 11 12 12 12 12 11 11 11 10
9 8 7 5 4 3 3 3 2 2 1 1 0 0 0 0 1 2 3 3 3 4 4 4 4 5 6 7 8 9 9 10 11 12 12 12 12 13 13 13 13 12 12
9 8 7 6 5 4 3 3 2 2 2 1 1 0 0 0 1 1 2 2 3 3 4 4 4 4 5 7 8 8 8 9 10 11 12 12 12 13 14 14 14 14 14
9 8 7 6 5 5 4 3 3 2 2 2 1 1 1 0 1 1 2 2 2 3 3 3 4 4 5 6 6 7 8 8 9 11 12 12 12 12 13 14 14 14 15
9 7 7 6 6 6 5 4 4 3 3 2 2 1 0 0 0 1 1 1 2 2 3 4 4 5 5 5 6 6 7 8 8 9 11 11 11 12 12 14 14 14 15
10 8 7 7 7 6 6 5 5 5 4 3 2 1 1 0 0 1 2 2 2 2 3 4 4 5 5 5 5 5 6 7 8 8 8 10 11 11 12 13 14 14 14
11 9 8 8 8 7 7 7 6 6 5 4 3 2 1 1 0 1 2 2 3 3 3 4 4 4 5 5 6 6 7 8 8 9 9 9 11 11 12 12 13 14 15
12 10 10 9 8 8 8 8 8 7 6 5 4 3 2 2 1 1 2 3 3 3 4 4 5 5 5 6 6 7 8 8 8 9 10 10 11 11 12 12 13 13 14
13 12 11 11 10 9 10 9 8 8 7 7 5 5 4 3 3 3 3 4 4 4 5 5 5 6 6 7 7 8 8 8 9 9 10 10 11 12 13 13 13 14 14
14 13 13 12 11 11 10 10 9 9 9 8 7 6 6 6 5 5 5 5 6 6 6 7 7 7 8 8 9 9 9 10 10 10 11 11 12 13 13 13 14 15 15
15 14 14 13 13 12 11 11 11 11 10 10 9 9 8 8 8 7 8 8 8 8 9 9 10 10 11 11 11 11 12 12 12 13 13 13 13 13 13 14 15 15 16
16 15 15 14 14 13 13 13 13 13 13 12 12 11 10 10 11 11 11 11 11 11 12 12 13 13 14 14 14 14 14 15 15 15 16 16 16 16 16 17 17 17 17
16 16 16 15 15 15 14 15 15 15 14 14 14 14 14 14 14 14 15 15 15 15 15 16 16 16 17 17 17 18 18 18 18 18 19 19 19 20 20 20 20 20 20
16 15 15 16 17 16 16 16 17 17 17 17 17 17 17 17 17 17 18 18 19 19 19 20 20 20 20 20 20 21 21 22 22 22 22 22 22 23 23 23 23 23 23
16 16 17 18 18 18 18 18 19 19 19 19 19 19 20 21 21 21 21 22 22 23 23 24 24 24 24 24 24 25 25 25 25 26 26 26 26 26 26 26 26 26 26
17 18 18 18 19 19 20 21 22 22 22 22 22 22 23 24 25 25 25 26 26 26 27 27 27 28 28 28 28 28 28 29 29 29 29 29 29 29 29 29 29 29 29
18 18 19 19 20 21 22 23 24 24 25 25 25 26 27 27 28 28 29 29 29 29 30 30 31 31 31 32 32 32 32 32 33 33 32 32 32 32 32 32 32 32 32
20 20 21 21 22 22 23 24 26 26 27 27 28 29 30 30 31 32 32 32 32 33 33 34 34 34 34 35 35 35 36 36 36 37 36 36 35 35 35 35 35 35 35
22 22 22 23 23 24 25 26 26 28 29 30 31 31 32 33 33 34 35 35 35 35 36 36 37 37 38 38 38 38 38 38 38 39 39 40 40 39 39 39 38 38 39
22 23 23 24 25 26 27 28 29 30 31 32 33 34 35 35 35 36 36 37 38 38 38 39 39 39 40 41 41 41 40 40 40 41 41 42 43 43 43 42 42 42 42
23 24 24 25 26 27 29 30 31 32 33 34 35 35 36 37 37 38 39 40 40 40 41 42 42 42 42 42 42 42 43 43 43 44 44 44 45 45 46 46 45 45 45
25 26 27 27 29 30 31 32 32 33 33 34 35 37 38 39 40 41 42 42 43 44 44 44 44 44 45 46 45 46 46 46 46 46 47 47 46 48 48 48 47 47 48
26 27 28 29 30 30 31 32 34 35 36 37 37 39 40 41 41 43 44 44 44 45 46 47 47 47 47 48 48 48 48 49 49 49 49 49 49 49 49 48 48 49 49
27 29 30 31 32 32 33 34 36 37 39 40 40 41 42 43 44 45 46 46 46 47 49 49 49 50 49 49 49 50 50 50 50 50 50 51 51 51 51 50 51 51 51

GEFSMA_500_meanwind_126.txt.gz
Wind_Speed
9 7 6 6 5 4 3 3 2 2 2 2 2 2 2 2 3 3 3 3 3 3 4 5 5 5 5 6 7 7 8 8 7 7 7 7 7 7 6 5 5 4 4
9 7 6 6 5 4 4 3 2 2 1 1 1 1 2 1 1 2 2 2 3 2 3 4 4 5 5 5 5 7 7 8 8 8 7 8 8 8 8 7 6 6 6
9 8 7 6 5 4 4 3 2 2 1 1 0 1 1 1 1 1 2 2 2 2 2 3 3 3 4 4 5 6 7 8 8 9 8 9 9 9 9 9 8 8 8
10 9 7 7 5 5 4 4 3 2 1 0 0 1 1 2 2 2 1 1 2 2 2 2 2 2 3 4 5 6 7 8 8 8 8 9 10 9 10 10 10 10 9
11 9 8 7 6 5 5 4 3 2 2 1 0 1 1 2 3 3 3 2 2 2 2 3 2 2 3 3 4 4 6 7 7 7 8 9 9 9 10 10 11 11 11
11 10 9 8 7 6 6 5 4 3 2 2 1 1 2 3 3 4 4 4 3 3 3 3 3 3 3 2 2 3 3 4 5 5 6 7 8 9 9 9 10 11 12
12 11 9 8 7 7 6 6 5 4 3 2 1 1 2 3 3 4 4 4 4 4 4 4 4 3 3 3 2 2 2 3 4 4 5 6 7 8 9 9 10 10 10
13 11 10 8 7 7 7 7 6 5 4 3 2 2 2 2 3 3 4 4 4 4 4 4 4 4 4 4 4 3 3 3 4 4 4 5 6 7 8 9 10 10 11
13 12 10 9 8 8 8 7 6 5 4 4 3 2 2 1 2 2 3 3 4 4 4 4 4 4 4 4 5 5 4 4 4 4 5 6 6 6 7 7 9 9 10
13 12 11 10 9 8 8 8 7 6 5 5 4 3 2 1 0 1 1 2 3 4 4 5 4 4 4 5 5 5 5 5 5 5 5 6 6 7 7 8 9 9 10
13 12 11 11 10 9 8 8 7 7 6 6 5 4 3 3 2 2 2 3 3 4 4 5 5 5 5 5 5 5 5 5 6 6 6 7 7 8 9 9 10 10 10
13 13 13 12 11 10 9 9 9 8 8 7 6 6 5 5 5 5 4 5 5 5 5 6 6 6 7 7 7 7 7 7 8 8 9 9 10 10 10 10 11 11 11
14 14 14 13 12 11 10 10 10 10 10 9 9 8 8 8 8 8 8 8 8 7 7 8 8 9 9 9 10 10 10 10 10 11 11 11 12 12 12 13 13 13 13
15 15 14 14 14 13 12 12 12 12 12 12 11 11 11 11 11 11 11 11 11 11 10 11 11 12 12 12 12 12 12 13 13 13 13 13 13 14 15 15 15 15 15
16 16 15 15 14 14 13 14 14 14 14 14 14 14 14 13 14 14 14 14 15 15 14 15 15 15 16 15 15 15 15 16 16 15 16 16 16 16 17 17 17 17 17
16 15 15 15 15 14 15 15 16 16 16 16 16 16 16 16 17 17 18 18 18 18 18 19 19 19 19 19 19 20 20 20 20 19 19 19 19 20 20 20 21 20 20
16 16 16 16 15 15 15 15 16 17 17 18 18 18 19 19 20 20 20 21 21 22 22 22 22 22 22 23 23 23 23 23 23 24 24 24 23 23 23 23 23 24 24
16 16 16 16 15 15 15 16 17 18 18 19 19 20 20 21 22 23 23 24 25 25 25 26 26 26 26 26 27 26 26 26 27 27 28 28 28 28 27 27 27 27 27
15 16 16 16 17 18 18 18 19 19 20 21 21 22 23 23 24 25 26 26 27 27 28 29 29 29 30 30 30 30 30 30 30 30 30 30 31 31 31 31 31 31 30
16 17 17 17 18 19 20 20 20 21 22 23 24 24 25 25 26 28 28 29 30 30 31 31 31 32 32 32 32 33 33 33 33 33 33 33 33 33 34 34 34 33 33
17 17 18 19 20 21 21 22 22 22 23 24 25 26 27 27 29 30 31 32 32 33 33 33 34 34 35 35 35 35 36 36 36 37 37 36 36 35 36 36 35 35 35
17 18 19 21 22 22 22 23 23 24 24 25 26 27 28 29 30 31 33 33 34 34 35 36 36 37 38 39 39 39 39 39 38 39 40 38 39 39 39 39 39 39 40
18 19 20 21 21 22 23 24 24 25 26 27 28 29 30 31 32 33 34 35 36 37 38 39 39 39 40 41 41 42 42 42 42 42 42 41 42 42 43 43 43 42 42
19 20 20 20 21 23 23 24 25 26 27 29 30 31 32 33 34 35 36 37 37 38 40 41 41 41 42 43 44 45 45 45 45 44 45 45 44 45 45 45 45 45 45
19 20 21 22 23 24 25 26 28 29 30 31 32 33 34 35 36 37 38 39 40 41 42 43 43 44 45 46 47 47 47 47 46 45 46 47 47 47 47 46 46 46 45
20 21 22 24 26 26 27 28 30 31 32 33 35 36 37 38 39 40 41 42 43 44 45 46 46 46 47 48 49 49 50 50 49 48 48 49 49 49 48 47 47 47 47

GEFSMA_500_meanwind_132.txt.gz
Wind_Speed
8 8 7 6 5 5 5 5 4 3 2 2 2 3 3 2 2 1 1 1 2 2 2 3 4 4 5 5 6 6 7 7 7 6 6 6 6 6 5 5 5 4 4
8 7 6 6 6 5 4 4 4 3 2 2 1 2 2 2 1 1 1 1 1 2 1 2 4 4 4 5 5 6 7 7 8 7 7 7 7 7 7 6 6 6 5
8 7 6 6 6 5 4 4 4 3 3 2 2 1 1 1 1 1 1 1 1 2 2 2 3 3 4 4 4 5 6 7 8 8 8 8 8 8 8 8 8 7 7
10 8 7 6 6 5 5 5 5 4 4 3 2 1 1 1 1 1 1 1 1 2 2 3 3 3 4 4 4 5 6 7 7 8 8 8 8 8 8 8 8 8 8
11 9 8 7 6 5 6 6 6 5 5 4 3 2 1 1 1 2 2 2 2 2 2 2 2 3 3 4 4 5 5 6 7 7 8 8 8 8 9 9 9 9 9
13 11 9 9 7 6 7 7 7 6 5 5 4 3 2 2 1 2 2 3 3 3 2 2 2 2 3 3 4 5 5 6 6 7 7 8 8 9 9 9 10 10 9
14 13 12 10 9 7 7 7 8 7 6 6 5 4 3 2 2 3 3 3 3 3 3 3 3 2 2 2 3 4 4 5 6 6 6 7 7 8 8 9 9 10 10
15 14 13 12 10 8 8 8 8 8 7 7 6 5 4 4 3 3 3 3 3 3 3 3 3 3 2 2 2 2 3 3 4 5 5 6 6 7 8 9 9 9 10
16 15 13 12 11 10 8 8 9 8 8 8 7 6 5 4 4 3 3 3 3 3 2 2 2 2 2 2 1 1 2 2 3 5 6 6 6 6 7 7 8 9 10
16 16 15 13 12 11 9 9 9 9 9 9 8 7 6 5 5 4 4 3 3 3 2 2 1 1 1 1 1 1 1 2 2 3 5 6 6 7 7 8 9 10 10
16 16 16 15 14 12 11 10 10 11 10 10 9 8 7 7 6 5 5 4 4 4 3 2 2 2 2 2 3 3 4 4 4 5 5 6 7 8 8 9 10 10 11
16 16 15 16 16 14 13 12 12 12 12 11 10 9 9 8 7 6 6 6 6 5 5 5 4 4 4 5 5 5 6 6 7 7 7 8 9 10 10 11 11 12 12
17 17 16 16 16 15 14 14 14 13 12 12 11 11 10 10 9 9 8 8 8 8 7 7 7 7 7 8 8 8 8 8 8 9 10 10 11 11 12 13 13 14 14
18 18 18 17 17 16 16 15 15 14 13 13 13 12 12 11 12 12 11 11 11 11 11 11 10 10 10 10 10 11 11 11 12 12 13 13 13 14 14 15 15 16 17
19 19 19 19 18 17 16 16 16 16 16 15 15 14 14 13 13 14 14 13 13 13 13 14 14 14 14 14 13 14 14 14 14 15 16 16 16 17 17 18 18 18 19
19 19 19 19 19 18 17 16 17 17 17 17 17 17 16 16 16 16 16 16 16 16 16 17 16 16 17 17 17 17 18 18 18 18 19 19 19 20 20 21 21 21 22
19 19 19 19 19 19 18 18 18 18 18 18 18 18 18 18 18 18 18 18 18 18 19 19 20 20 20 20 21 21 22 22 22 22 22 22 22 23 23 23 24 24 25
20 20 19 19 19 19 19 20 20 20 20 20 19 19 20 20 21 21 21 21 21 21 21 22 23 23 23 23 23 24 25 25 25 26 26 26 26 26 26 27 27 28 28
19 20 20 20 20 19 19 20 21 21 21 21 21 21 22 22 23 23 24 24 24 24 24 25 25 26 26 26 26 26 27 28 28 29 29 29 29 30 30 30 30 31 31
19 19 20 21 21 21 21 21 22 22 23 23 23 23 23 24 24 25 25 26 26 27 27 27 28 28 29 29 29 30 30 30 31 32 32 33 33 33 33 33 34 34 34
19 19 20 20 21 22 22 23 22 23 24 24 24 24 25 25 25 26 26 27 28 29 30 30 30 31 31 32 32 33 33 34 34 36 36 36 37 37 37 38 38 38 39
17 19 20 21 21 21 22 23 24 25 25 25 25 25 25 26 27 28 28 29 30 31 32 32 33 33 34 36 37 37 37 37 37 39 40 39 40 40 40 41 41 41 41
17 18 19 20 21 22 23 24 25 25 25 25 26 26 26 27 29 30 31 32 33 33 34 35 35 36 37 38 39 40 40 40 39 41 42 41 42 43 43 44 44 44 45
19 20 21 22 23 23 24 24 24 24 25 26 27 28 29 30 31 32 33 34 35 36 37 38 39 39 40 41 41 42 42 42 42 44 45 45 45 46 46 47 47 48 48
20 21 22 22 23 24 23 23 24 25 26 28 28 29 30 31 33 34 35 35 37 38 40 41 42 42 43 44 44 45 45 46 46 46 48 49 48 49 49 50 51 51 51
20 21 21 23 23 24 24 24 25 26 27 29 30 31 32 33 35 36 37 38 39 40 41 42 43 44 45 46 47 48 49 50 50 50 51 53 53 53 53 53 54 54 54

GEFSMA_500_meanwind_138.txt.gz
Wind_Speed
6 6 6 6 5 4 4 4 4 3 2 2 1 1 1 1 2 2 2 2 1 2 2 3 4 4 5 5 4 5 6 6 6 6 6 6 5 5 5 4 4 4 4
8 7 7 6 6 5 4 4 3 2 2 2 1 1 1 1 2 2 2 2 2 2 2 3 3 4 4 5 5 5 6 6 6 7 7 7 7 6 6 6 5 5 4
9 8 8 7 6 5 4 3 2 1 1 1 1 0 0 1 1 2 2 2 2 2 2 2 3 3 4 5 5 5 6 6 7 7 7 7 7 7 7 7 7 6 6
11 10 9 8 7 6 5 4 3 2 2 2 1 1 0 1 2 2 2 2 2 2 2 2 2 3 3 4 5 4 5 6 7 7 8 8 7 7 7 8 8 7 7
13 11 10 9 8 7 6 5 4 3 3 3 2 1 1 1 1 2 3 2 1 1 1 2 3 3 4 4 4 5 5 6 6 7 8 8 8 8 8 8 8 8 8
14 12 11 10 9 8 7 6 6 5 5 4 4 2 2 1 1 1 2 2 1 1 1 1 2 2 3 4 4 5 5 5 6 7 7 8 8 8 8 9 9 9 9
15 13 13 12 10 9 8 7 7 7 6 6 5 4 3 3 2 1 1 1 1 1 1 1 1 1 2 3 4 5 5 6 6 6 6 7 8 8 9 9 10 10 10
17 15 15 14 12 11 10 9 8 8 8 7 6 5 4 3 3 1 1 0 0 1 1 2 1 2 2 3 3 4 5 5 5 6 6 7 7 8 8 9 9 10 11
17 15 16 16 14 13 11 10 9 9 9 8 7 6 5 4 4 3 2 2 1 1 1 1 2 2 2 3 3 3 3 4 5 5 6 6 7 8 8 9 10 10 11
18 16 16 16 15 14 12 11 10 10 10 9 8 7 7 6 5 5 4 4 3 3 3 3 4 4 4 3 4 4 4 4 5 5 6 7 7 8 9 10 10 11 12
18 17 16 16 16 15 13 12 11 11 10 10 9 9 8 7 7 7 6 6 6 6 5 5 5 5 5 5 5 5 5 6 6 7 7 8 8 9 9 10 11 12 13
18 17 17 16 17 15 14 14 13 12 12 11 11 10 10 9 8 8 8 8 8 8 8 8 8 8 8 8 8 8 8 8 8 9 9 10 10 11 11 12 12 13 13
19 18 17 17 17 16 16 15 14 14 14 13 12 12 12 11 11 11 11 11 11 11 11 11 11 11 11 11 11 11 11 11 11 12 12 12 13 13 14 14 15 15 15
21 20 19 18 18 18 17 17 16 16 15 15 14 14 13 13 13 13 13 13 13 14 14 14 14 14 14 14 14 14 14 14 14 15 15 15 16 16 16 17 17 18 18
21 21 20 19 19 18 18 17 17 17 17 17 17 16 16 16 16 16 16 16 16 16 17 17 17 17 17 17 17 17 17 17 17 18 18 19 19 19 20 20 20 21 21
22 22 21 21 20 20 19 18 18 18 18 18 19 18 18 18 18 18 18 18 18 18 19 20 20 20 20 20 20 21 21 21 21 22 22 22 22 23 23 24 24 24 25
22 22 22 22 22 21 20 20 20 20 20 20 20 20 20 20 20 20 20 20 21 21 21 22 22 22 22 23 23 24 24 25 25 25 25 26 26 27 27 28 28 28 29
22 22 22 23 23 22 22 22 22 22 22 22 22 22 22 22 22 22 22 22 23 23 24 25 25 25 26 26 26 27 27 28 29 29 29 30 30 31 31 31 32 32 33
21 22 22 23 23 23 23 23 23 23 23 24 23 23 23 24 24 24 24 25 25 25 26 26 27 28 28 29 29 30 30 31 32 32 33 34 34 34 35 35 36 36 36
19 20 21 22 23 23 23 22 22 22 22 23 23 24 24 25 25 26 26 27 27 27 27 28 29 30 30 31 31 32 32 33 34 35 36 37 37 38 39 39 39 39 39
19 19 21 22 22 23 22 22 23 23 23 23 24 24 25 26 26 27 28 29 29 29 30 30 30 31 33 33 34 34 35 36 37 38 39 40 40 41 42 42 43 43 43
18 19 21 22 21 21 21 22 23 24 24 24 25 26 26 27 28 29 31 31 31 31 32 32 33 34 35 36 37 37 38 39 40 42 43 43 44 44 44 45 46 46 46
18 18 20 20 20 20 20 22 23 24 25 26 27 28 28 29 31 31 32 32 32 33 34 35 36 36 38 39 39 40 41 41 42 43 45 45 46 47 48 48 48 49 49
18 19 19 20 21 21 22 24 26 27 28 28 29 30 31 32 33 33 33 33 34 35 36 37 38 39 41 42 43 43 44 44 45 46 47 47 48 49 50 51 51 52 52
18 18 19 20 21 22 23 25 27 28 29 29 30 30 31 32 33 34 35 36 37 38 39 40 41 42 43 44 45 46 47 48 48 49 50 51 51 52 53 54 55 55 56
19 20 21 22 23 24 25 27 27 28 29 30 31 31 32 33 35 35 37 38 40 40 41 42 43 44 45 46 47 48 49 51 52 52 53 54 55 56 56 56 57 58 59

GEFSMA_500_meanwind_144.txt.gz
Wind_Speed
8 6 5 4 3 2 1 0 1 1 1 1 1 1 1 1 1 1 1 1 1 1 2 2 3 3 4 5 6 6 6 5 5 6 5 5 5 4 4 4 3 3 3
9 8 6 5 4 3 2 1 1 1 1 1 1 2 2 1 1 1 1 2 2 1 1 1 2 2 3 4 5 5 6 6 6 6 6 6 5 5 5 5 5 5 4
11 9 8 6 4 4 3 2 1 1 1 1 2 2 2 1 1 1 2 2 2 2 1 1 2 2 3 3 4 4 5 6 6 6 7 6 6 6 6 6 6 6 5
12 11 9 7 6 5 4 3 2 2 2 2 2 2 2 1 1 1 1 2 2 2 1 1 1 1 1 2 3 3 5 5 6 6 7 7 7 7 6 6 6 6 6
13 12 11 9 7 6 6 5 4 3 3 3 3 3 2 1 1 1 1 2 2 2 2 1 1 1 1 2 2 3 4 5 6 6 6 7 8 8 7 7 7 7 7
14 13 12 10 9 8 7 6 5 5 4 4 3 3 3 2 1 0 1 1 2 2 2 2 1 1 1 2 3 3 3 4 4 5 6 7 8 8 8 8 8 8 8
15 14 13 12 10 9 8 7 7 6 6 5 5 4 3 3 2 2 1 0 1 1 1 2 2 2 2 2 2 3 4 4 4 5 6 6 7 7 8 8 8 9 9
16 15 15 13 12 10 10 9 8 8 7 7 6 5 5 4 4 3 2 1 1 0 1 1 1 1 2 2 2 3 3 4 4 5 5 6 6 7 7 8 9 10 10
17 16 15 14 13 12 11 10 10 9 9 8 7 7 7 6 5 5 4 3 2 2 1 1 1 2 2 2 3 3 3 3 4 5 5 6 6 7 8 8 9 10 10
17 17 15 15 14 13 12 12 11 11 10 10 9 9 8 8 7 6 5 5 4 4 3 3 3 3 4 4 4 4 4 5 5 6 6 6 7 7 8 9 10 10 10
18 18 16 15 14 14 13 13 13 12 11 11 11 10 10 9 8 8 7 7 6 6 6 6 6 6 6 6 6 6 6 7 7 7 8 8 8 9 9 9 10 10 11
17 18 17 16 16 15 15 14 14 13 12 12 12 11 11 10 10 9 9 9 8 8 8 8 8 8 8 8 8 8 8 9 9 9 10 10 10 10 11 11 11 12 13
18 18 18 17 17 17 16 15 15 15 14 13 13 13 13 12 12 12 11 11 11 11 11 11 11 10 10 10 10 11 11 11 11 12 12 12 13 13 13 14 14 15 15
19 19 19 19 18 18 17 17 17 17 16 15 15 15 15 15 15 14 14 14 14 14 13 13 13 13 12 13 14 14 14 14 14 15 15 16 16 16 17 17 17 17 18
19 20 20 20 20 19 18 17 18 18 17 16 16 17 17 18 18 18 17 17 16 16 16 16 16 16 16 16 16 17 17 17 18 18 18 19 19 20 20 20 21 22 22
19 20 21 21 21 21 20 20 19 19 18 18 18 18 19 19 20 20 20 19 19 19 19 19 19 19 19 19 19 20 20 20 21 21 22 22 22 23 23 24 25 25 26
20 20 22 22 22 22 22 22 21 21 20 20 20 20 20 21 21 21 22 22 22 21 21 22 22 21 21 22 22 22 22 23 23 24 24 25 26 26 27 27 28 29 29
20 20 21 22 22 23 23 23 23 23 23 22 22 22 22 22 22 23 23 23 23 23 23 24 24 24 24 24 25 25 25 26 26 27 27 28 29 29 30 30 31 32 33
19 20 21 22 22 22 24 24 25 25 24 24 24 24 24 24 24 24 24 25 25 25 25 26 26 26 26 27 27 27 27 28 29 29 30 31 32 32 33 34 34 35 36
18 20 21 22 23 23 24 25 25 25 26 27 27 27 27 26 26 26 26 26 26 27 27 28 28 28 28 28 29 30 30 31 32 32 33 34 34 35 36 37 38 38 39
19 20 20 21 22 22 22 24 25 25 26 27 27 28 28 27 27 26 26 27 27 28 29 29 30 30 31 31 32 33 33 34 35 36 37 37 38 38 39 40 41 41 42
18 20 21 21 22 22 22 23 24 25 25 26 27 27 27 27 28 28 28 28 29 30 31 31 32 32 33 34 35 35 36 36 38 39 40 41 41 42 43 43 43 44 44
17 18 20 21 22 23 23 24 24 25 25 25 26 28 28 28 29 30 30 30 31 33 34 34 34 35 36 37 37 38 39 39 41 42 43 44 45 45 46 46 46 47 47
18 19 20 21 22 23 24 24 24 26 27 27 27 27 29 30 30 31 32 33 33 34 35 36 36 37 39 40 41 41 42 42 43 44 45 45 46 47 48 49 49 49 50
18 19 19 21 22 23 24 25 25 26 26 26 26 28 29 30 31 32 33 34 35 36 37 38 39 40 41 42 42 43 43 44 45 46 46 47 48 49 50 51 52 53 53
19 20 20 21 22 23 25 25 26 26 26 27 28 29 29 30 31 33 34 35 36 36 37 38 39 40 41 42 43 44 45 45 46 47 48 49 50 51 52 53 54 55 56

GEFSMA_500_meanwind_150.txt.gz
Wind_Speed
7 6 5 4 3 2 2 2 1 1 1 1 1 1 1 1 2 2 2 2 2 1 0 0 1 1 2 2 3 3 4 4 3 3 3 3 3 2 2 1 1 1 1
8 6 5 5 4 3 3 2 2 1 1 1 1 1 1 2 2 2 2 2 2 2 1 0 1 1 1 2 3 3 4 4 4 4 4 4 3 3 3 3 2 2 2
9 8 7 6 5 4 4 3 3 2 2 2 1 1 1 1 1 2 2 2 2 2 1 1 1 1 1 1 2 3 4 4 4 5 5 5 4 4 4 4 4 4 3
10 9 8 7 6 5 5 4 3 3 3 2 2 2 2 1 1 1 2 3 3 3 2 2 2 1 1 0 1 3 3 4 4 4 5 6 6 5 5 4 4 4 4
10 9 10 9 7 7 6 6 5 4 3 3 2 2 2 1 1 1 2 2 3 3 3 3 3 2 2 1 0 1 2 3 3 4 5 5 6 6 6 5 5 5 5
10 10 10 10 9 8 8 7 6 5 5 4 3 3 3 2 1 0 1 1 2 2 2 2 2 2 2 1 1 1 1 1 3 3 4 4 5 6 7 7 7 6 6
11 11 11 11 10 10 9 8 8 7 6 5 4 4 4 3 3 2 1 0 1 2 2 2 2 2 2 1 1 2 2 2 2 3 3 3 4 4 6 8 8 8 8
12 12 11 12 11 10 10 10 9 8 8 7 6 5 5 4 4 3 2 1 1 1 1 1 2 2 1 1 1 2 2 2 2 3 3 4 4 4 5 6 7 8 8
12 12 12 12 12 11 11 11 10 10 10 9 8 7 6 5 5 5 4 3 2 2 2 2 2 2 2 2 3 3 3 3 3 4 4 5 5 5 6 6 7 8 9
13 13 13 12 13 12 12 12 12 12 11 11 10 9 8 8 7 6 5 5 4 4 4 4 4 4 3 3 4 4 5 5 5 5 5 6 6 6 7 7 8 8 9
14 14 14 14 13 13 13 13 13 13 12 12 12 11 10 9 8 8 7 7 7 7 7 7 6 6 6 6 6 6 7 7 7 7 7 7 8 8 9 9 9 10 10
15 15 15 15 14 14 15 14 14 14 14 13 13 12 12 11 10 9 9 8 8 9 9 9 9 8 8 8 8 9 9 9 9 9 10 10 10 10 10 11 11 12 12
15 16 16 16 16 16 16 15 15 15 14 14 14 14 14 14 13 12 12 11 11 12 12 11 11 11 10 10 11 11 11 11 11 11 11 12 12 12 13 13 14 14 14
16 17 17 17 17 17 17 17 17 17 16 16 16 16 15 15 16 15 15 14 14 14 14 14 15 15 14 13 13 13 13 13 14 14 14 14 15 15 16 16 17 17 17
16 17 17 18 18 19 19 19 18 18 18 18 18 18 17 17 18 18 18 18 17 17 17 17 17 17 17 16 16 16 15 16 16 17 17 17 18 18 18 19 19 20 20
17 18 18 19 19 19 19 19 19 19 20 20 20 20 19 18 19 19 20 20 20 20 20 20 20 20 20 19 19 19 18 19 19 19 19 20 20 21 21 22 23 23 24
18 19 20 20 20 19 21 21 21 21 21 21 21 21 21 21 21 21 22 21 22 22 22 22 21 22 22 22 22 22 22 22 22 22 22 23 23 24 25 25 26 26 27
18 19 20 20 19 19 21 21 22 22 22 23 23 23 23 23 23 23 23 24 24 24 24 23 23 23 23 24 25 25 25 25 25 25 26 26 26 27 27 28 28 29 29
17 18 20 20 19 19 20 21 21 22 23 24 25 25 24 24 25 25 25 25 26 26 26 26 26 26 26 26 27 27 28 28 28 27 29 30 30 30 31 31 32 32 33
16 17 19 18 19 19 20 20 21 22 23 24 24 24 24 25 26 27 27 27 27 27 28 28 28 28 29 29 29 29 30 31 31 31 31 32 33 34 35 35 36 36 37
16 16 17 18 19 19 19 20 22 22 23 23 24 24 25 25 27 28 29 29 29 29 29 29 30 30 30 31 31 32 32 33 33 34 34 35 35 36 36 37 37 38 40
15 15 17 18 19 19 19 20 21 22 23 24 24 25 25 26 28 29 29 30 31 31 31 31 31 32 33 33 33 33 33 34 35 36 36 37 38 38 38 38 38 39 41
15 15 16 17 18 18 19 20 21 23 24 24 25 26 27 28 29 29 30 31 32 32 32 32 32 33 33 33 34 36 37 37 37 38 38 39 40 41 42 42 43 43 43
15 16 16 17 18 18 20 21 23 24 25 25 27 28 28 29 30 30 28 29 30 31 31 32 32 33 33 34 35 37 38 39 40 40 41 42 43 44 45 45 45 45 46
17 16 17 17 18 18 19 21 22 24 24 25 27 27 28 28 28 28 29 29 30 31 33 33 34 34 34 35 36 38 39 40 41 42 42 43 44 44 45 46 48 48 49
18 18 18 19 20 20 21 21 22 23 24 25 26 27 28 29 29 29 29 30 30 31 32 32 34 35 35 36 37 39 40 41 42 42 43 44 45 46 47 48 50 51 52

GEFSMA_500_meanwind_156.txt.gz
Wind_Speed
5 4 4 4 3 2 2 1 1 1 1 1 1 0 0 1 1 1 1 1 1 1 0 1 1 2 2 2 3 3 4 4 4 4 4 4 4 4 4 4 4 3 3
5 5 4 4 3 2 2 2 1 1 1 0 1 1 1 0 1 1 1 2 1 1 0 1 1 2 2 2 3 4 4 4 4 4 4 5 5 5 5 5 5 5 4
7 6 6 5 4 4 3 3 2 2 2 1 1 1 1 1 1 0 1 1 2 1 1 1 1 1 2 2 3 4 4 5 5 5 5 6 6 6 6 6 6 6 5
8 8 7 6 5 4 4 4 3 3 3 2 2 2 2 2 1 0 1 1 2 2 1 0 1 1 1 2 3 3 4 5 5 6 6 6 6 6 6 6 6 6 6
9 8 8 7 7 6 5 5 5 4 4 4 3 3 2 2 2 1 1 0 1 1 1 0 1 1 1 1 2 3 3 4 5 6 6 6 6 7 7 8 7 7 7
10 9 8 8 8 8 7 7 6 6 6 5 4 4 4 3 3 3 2 1 1 1 1 0 1 1 2 2 2 2 3 4 5 5 6 7 7 7 7 8 9 9 9
10 10 9 9 9 9 9 8 8 7 7 7 6 6 5 5 6 5 4 3 3 3 2 2 2 2 2 2 2 3 3 4 5 6 6 6 7 7 8 8 9 9 10
10 10 10 10 10 10 9 10 10 9 9 8 8 7 7 7 7 7 6 5 5 4 4 3 3 2 3 3 3 4 4 4 5 6 6 6 7 8 9 9 9 10 10
11 11 11 11 11 11 10 10 11 11 10 10 9 9 8 8 8 8 8 8 8 7 6 6 5 5 4 5 5 5 5 5 5 6 7 8 8 9 9 9 10 10 11
12 12 12 12 11 11 11 12 12 12 11 11 11 10 10 9 9 9 9 9 9 8 9 8 7 7 7 7 7 7 7 7 7 7 8 9 9 10 10 10 11 11 12
13 13 13 13 13 12 12 12 13 12 13 13 12 12 11 11 11 11 11 11 11 11 11 10 10 10 9 9 9 9 9 9 9 10 10 11 11 11 11 11 12 12 13
14 14 14 15 14 14 13 13 13 14 14 14 14 13 13 13 13 12 12 12 12 13 13 12 12 12 13 12 12 11 11 12 12 12 12 12 13 13 13 13 13 14 14
15 16 15 16 15 15 15 15 14 15 15 15 15 15 14 14 14 14 14 13 13 14 14 14 14 14 14 14 14 14 14 14 15 15 15 15 15 15 15 16 16 16 17
14 15 15 16 16 16 16 16 16 16 17 16 16 16 16 16 16 16 16 16 15 15 16 16 16 16 16 16 17 17 16 16 16 17 17 17 17 18 18 18 19 19 19
14 15 16 17 17 18 17 18 18 17 18 18 18 18 18 18 18 18 18 19 18 18 18 18 18 19 19 19 19 19 19 19 19 19 19 19 20 20 20 21 21 21 22
13 15 16 18 18 19 19 19 19 18 18 19 19 20 21 21 21 21 21 21 21 20 20 20 21 21 21 21 21 22 22 22 22 22 22 22 22 22 23 24 24 24 24
13 14 16 18 19 20 20 21 21 20 20 21 21 21 21 22 23 23 23 23 23 23 23 22 22 23 23 24 24 24 24 25 25 25 25 26 25 25 26 27 27 28 28
13 14 16 17 19 20 21 22 22 22 22 23 23 23 23 24 24 24 24 24 24 24 24 24 24 25 25 25 26 27 27 27 27 27 28 28 28 29 29 30 30 30 31
14 15 16 17 18 20 21 21 22 23 22 22 23 22 23 24 25 25 25 25 25 25 26 26 26 27 27 27 28 28 29 29 30 30 30 30 31 32 33 33 33 33 34
14 15 16 17 19 21 21 22 22 22 22 22 21 22 23 24 24 25 26 26 27 27 27 28 28 29 29 29 30 30 31 31 32 32 33 33 34 35 36 36 36 36 37
15 16 16 17 17 19 20 21 22 22 21 22 22 22 23 24 25 25 26 26 27 28 28 28 29 30 30 31 31 31 32 32 33 33 33 34 36 37 38 38 38 39 39
16 16 16 16 16 17 18 18 19 19 20 20 21 22 23 23 24 25 25 26 26 28 29 30 31 31 31 32 32 32 32 32 33 34 36 36 37 38 38 39 40 41 42
15 15 15 15 15 15 16 16 17 18 19 20 20 21 22 23 24 25 26 26 26 27 29 29 30 30 31 31 32 33 33 33 34 36 37 38 39 40 41 41 42 43 43
15 15 15 15 15 15 16 16 17 18 19 20 21 23 23 24 26 26 27 27 27 28 28 28 29 30 31 32 33 33 34 35 36 37 38 39 40 40 41 42 42 43 44
15 15 15 15 15 16 16 16 17 19 20 21 22 23 24 25 25 26 27 27 27 27 28 29 30 31 32 33 33 34 35 36 37 38 39 40 41 42 43 44 45 46 47
15 15 15 15 16 16 17 17 18 19 21 22 23 24 24 25 25 26 26 27 28 29 30 31 31 32 33 33 34 35 36 37 38 39 41 42 43 44 45 46 47 48 49

GEFSMA_500_meanwind_162.txt.gz
Wind_Speed
2 2 2 2 1 1 0 1 0 1 1 1 2 2 2 3 4 4 3 3 3 3 2 1 1 1 0 0 1 1 2 2 2 2 2 2 3 3 3 3 4 3 3
4 4 3 2 2 2 1 1 1 1 1 0 1 1 2 2 3 3 3 3 3 2 2 1 1 1 1 1 1 2 2 3 3 3 3 3 3 4 4 4 4 4 4
5 5 3 3 2 2 2 2 2 2 2 1 0 1 1 1 1 2 2 2 2 2 2 2 1 1 1 2 2 2 2 3 4 4 4 4 5 5 5 5 5 5 5
6 6 5 4 4 4 3 3 3 3 3 2 2 2 2 1 2 2 2 2 2 2 3 2 2 2 2 2 2 2 3 3 4 4 5 5 5 5 5 6 6 6 6
7 7 7 6 5 5 4 4 4 4 4 3 3 3 2 2 2 2 2 2 2 3 3 3 2 3 3 3 3 2 3 3 4 4 5 6 6 6 6 6 6 7 7
7 8 8 7 6 6 6 6 6 6 5 5 5 4 4 4 4 4 3 3 3 3 3 3 3 3 4 4 4 3 4 4 5 5 6 6 7 7 7 7 7 8 8
8 8 8 8 8 7 7 7 8 7 7 7 6 6 6 6 6 5 4 4 5 4 4 4 4 4 4 4 4 5 5 5 6 6 7 7 8 8 8 8 9 9 10
9 9 9 9 9 9 9 9 9 9 9 8 8 8 8 7 7 6 6 6 6 6 6 5 5 5 5 5 5 6 6 7 7 7 7 8 8 9 9 10 10 11 11
10 10 10 10 10 10 10 10 11 11 10 10 10 10 9 9 9 9 8 8 8 8 7 7 7 7 7 7 7 8 8 8 9 9 9 10 10 10 11 11 12 12 12
12 12 12 11 12 12 12 12 12 13 12 12 12 12 12 11 11 11 11 11 10 10 10 10 9 10 10 9 9 9 10 10 10 10 11 11 12 12 12 13 13 13 14
12 13 13 13 13 13 13 14 14 14 14 13 13 13 13 14 13 13 13 13 13 12 12 12 12 12 12 12 12 12 12 12 12 13 13 13 13 14 14 14 14 15 15
12 13 14 15 14 14 14 15 15 15 16 15 15 15 15 15 16 16 16 16 15 14 13 13 13 14 13 14 14 14 14 14 15 15 15 16 16 16 16 16 16 16 17
13 14 15 16 16 16 16 16 16 16 16 17 17 17 17 17 17 18 17 17 17 16 16 16 16 16 16 16 16 16 17 17 17 17 17 18 18 19 19 19 19 19 19
14 15 16 17 18 18 18 18 18 17 18 18 18 18 18 18 19 19 19 19 19 19 19 19 19 19 19 19 19 19 20 20 20 20 20 20 21 21 21 21 22 22 22
14 15 16 16 17 18 18 18 19 19 19 20 20 20 21 21 21 21 22 22 21 21 21 21 22 22 22 23 23 22 22 22 23 23 23 23 23 22 22 23 24 24 24
14 15 15 16 18 19 19 20 20 20 20 20 22 22 23 23 24 24 24 24 24 24 23 23 24 24 25 25 25 25 25 25 25 25 25 26 26 26 26 26 27 27 27
13 14 15 16 18 19 20 20 21 21 21 22 22 23 23 24 24 24 24 25 25 26 25 26 27 27 27 27 27 28 28 28 28 28 28 28 29 29 29 29 30 30 29
13 14 15 16 17 19 20 21 22 23 23 23 24 24 24 25 26 26 26 26 27 27 26 26 27 28 28 29 29 29 30 30 30 30 30 31 31 32 32 32 32 32 32
13 14 14 16 17 19 21 21 22 23 24 25 26 26 26 26 26 26 27 27 27 27 27 28 28 29 30 31 31 31 31 32 32 32 32 33 34 34 34 34 34 34 35
15 15 16 17 18 19 20 21 23 24 25 26 26 26 27 27 26 26 27 27 27 28 28 28 29 30 30 31 32 32 33 32 33 34 34 34 34 35 36 36 36 36 37
16 16 17 18 19 20 20 21 22 23 23 24 25 26 26 26 26 26 26 27 27 27 28 28 29 30 31 31 32 33 33 33 33 33 34 35 36 36 36 36 37 38 38
17 18 18 19 19 20 21 21 21 21 21 22 22 23 24 25 25 25 26 27 28 28 28 29 30 31 31 31 32 33 33 34 34 35 35 36 37 37 37 37 38 39 40
18 18 19 19 19 20 20 20 20 19 19 19 21 23 24 24 25 26 27 27 27 28 29 30 31 30 31 31 31 32 33 34 34 36 37 37 38 38 38 38 39 41 42
18 18 18 18 19 19 19 19 19 19 20 20 21 22 23 24 25 26 27 28 29 29 30 31 31 31 31 32 32 33 34 35 36 37 37 37 37 38 39 40 41 42 42
17 17 17 17 17 18 18 18 18 19 20 20 21 22 23 24 25 26 28 29 29 30 31 31 31 31 32 32 34 35 36 36 36 37 37 38 38 39 40 41 42 43 43
18 17 17 17 18 18 18 19 19 19 20 21 23 24 24 25 26 27 28 29 30 31 32 32 32 33 33 33 35 35 36 36 36 37 38 39 40 41 41 42 43 44 45

GEFSMA_500_meanwind_168.txt.gz
Wind_Speed
3 3 3 3 3 3 3 3 3 3 3 3 3 3 3 3 3 3 3 3 3 2 2 2 2 1 1 1 1 1 2 2 2 2 2 2 2 3 3 3 3 3 2
4 3 4 4 4 4 3 3 3 3 2 2 3 2 2 2 2 2 2 2 2 2 2 1 1 1 0 0 1 1 1 1 2 3 3 2 2 3 3 3 4 4 4
4 4 4 4 4 4 3 3 3 3 2 2 2 1 1 1 1 1 1 1 1 1 1 1 1 0 1 0 0 1 2 2 2 3 3 3 3 3 3 4 4 4 4
5 5 5 5 4 4 4 4 4 3 3 2 1 1 1 1 0 0 0 1 1 1 1 1 1 1 1 1 1 2 2 3 3 3 4 4 4 4 4 4 4 5 5
6 6 5 5 5 5 5 4 5 4 4 3 3 3 2 2 2 2 1 1 1 1 2 2 2 2 2 2 2 2 2 3 4 4 5 5 6 6 6 6 6 6 6
6 6 6 6 6 6 6 6 6 5 5 4 4 4 4 4 4 3 3 3 3 3 3 3 3 3 3 3 4 4 4 4 4 5 5 6 6 7 7 7 7 7 8
6 7 7 7 7 7 7 7 7 7 6 6 6 6 6 5 5 5 5 5 5 5 4 4 4 4 4 4 5 5 5 5 6 6 7 7 8 8 8 9 9 9 10
7 8 8 9 8 8 8 8 8 8 8 7 7 7 7 7 7 7 7 7 6 6 6 6 6 6 6 6 6 7 7 7 8 8 8 9 9 9 10 11 11 11 12
8 9 9 10 10 10 10 10 10 10 9 9 9 9 9 9 9 9 9 9 8 8 8 8 8 8 8 8 8 8 9 9 9 9 10 10 11 11 11 12 12 13 13
9 10 10 10 10 10 11 11 11 11 11 11 11 11 11 11 11 11 11 11 11 11 11 10 10 10 10 10 10 10 10 11 11 12 12 12 12 12 13 13 14 14 15
10 10 11 11 12 12 13 13 12 13 13 14 14 13 13 13 13 13 13 13 13 13 13 13 13 13 13 13 13 13 13 13 13 14 13 14 14 14 15 15 16 16 17
10 11 12 13 14 14 15 15 15 14 15 15 15 16 16 15 16 16 15 16 16 16 16 16 16 16 16 16 16 16 16 16 16 16 16 17 17 17 17 17 18 18 19
12 12 13 14 15 15 16 16 16 16 17 17 17 17 17 18 18 18 18 19 18 18 18 19 19 19 18 18 18 18 18 18 18 19 19 20 20 20 20 20 20 21 21
13 14 15 15 15 16 17 17 17 18 18 19 19 19 19 19 19 19 20 21 21 20 20 21 21 21 21 21 21 21 21 21 22 22 22 22 22 22 23 23 23 23 24
14 15 15 17 17 17 18 18 18 18 19 19 20 21 21 21 21 21 21 22 22 22 22 23 23 23 23 23 24 24 24 24 24 24 24 25 25 25 25 26 26 26 26
14 15 16 17 18 18 19 19 19 19 20 21 21 22 22 21 22 22 22 23 22 23 23 23 24 25 26 26 26 26 26 26 27 27 27 27 28 28 28 28 28 28 28
15 16 16 17 18 19 19 19 19 19 20 21 22 22 22 23 23 24 24 24 24 24 24 24 25 26 27 27 27 27 27 28 28 29 29 29 30 30 30 30 29 30 30
15 16 17 18 18 18 18 19 20 21 22 22 23 23 23 24 25 26 26 26 25 24 25 25 26 27 27 27 28 28 28 29 29 29 30 31 32 32 32 32 32 32 32
15 16 18 18 19 18 19 20 20 21 23 23 23 24 25 25 26 26 27 27 27 26 27 27 27 28 28 29 28 28 29 30 30 30 31 31 32 34 35 34 34 33 34
16 17 18 18 19 20 21 21 22 22 23 24 24 25 25 26 26 26 27 26 26 26 27 28 28 29 29 29 29 29 30 31 31 32 32 33 33 35 35 35 35 35 36
17 17 18 18 19 20 21 22 22 22 23 24 24 25 24 24 25 26 26 26 25 26 26 27 28 28 28 29 29 30 30 31 32 32 32 33 33 35 36 36 36 36 36
17 17 17 18 20 21 21 22 23 23 24 24 24 23 24 24 24 24 25 25 25 25 26 26 27 27 28 28 29 30 31 32 33 33 33 33 34 34 35 35 35 37 38
18 18 19 20 21 21 22 23 23 24 24 24 24 24 24 23 22 22 23 24 26 26 27 28 28 29 29 30 31 31 31 32 33 33 33 34 34 35 36 36 37 38 39
19 19 20 21 21 21 21 22 22 23 23 24 24 24 23 22 22 23 25 26 27 28 28 29 30 30 31 32 32 32 32 33 34 35 36 37 37 37 39 39 39 40 41
19 20 21 20 21 21 21 21 22 21 22 22 22 23 23 23 23 23 24 26 27 28 28 29 30 31 32 33 33 34 35 36 36 37 38 38 39 39 40 40 41 40 40
20 21 21 21 21 20 20 20 21 20 20 21 21 22 22 23 23 24 25 26 27 28 28 29 30 31 32 33 34 35 35 36 36 37 38 39 39 40 41 41 41 41 42

GEFSMA_500_meanwind_174.txt.gz
Wind_Speed
1 1 1 1 1 1 2 3 2 2 2 2 2 2 3 3 3 3 3 3 3 3 3 3 3 2 2 2 1 1 1 1 1 1 2 2 2 2 2 2 2 2 2
1 1 1 1 1 1 1 2 2 1 1 1 1 1 1 2 2 2 2 2 2 2 2 2 2 2 2 1 1 1 1 1 1 2 2 2 2 2 2 2 2 2 2
2 2 2 2 2 2 2 2 1 1 1 1 1 1 0 1 1 2 2 2 2 1 1 2 2 1 1 2 1 0 1 2 2 2 3 3 3 3 3 3 3 3 3
3 3 2 3 3 3 3 3 3 2 2 2 2 1 1 1 1 1 2 2 2 1 1 2 2 2 1 1 1 1 2 3 4 4 4 4 4 4 4 5 5 4 5
4 4 4 4 4 4 4 4 4 3 4 4 3 3 2 2 1 2 2 2 2 2 2 2 2 2 2 2 2 2 3 4 5 5 5 6 6 6 6 6 6 6 6
5 5 5 4 4 5 5 5 5 5 5 5 4 4 4 4 4 4 4 4 4 4 3 3 3 3 3 4 4 4 4 5 6 6 7 7 8 8 8 8 8 8 8
5 5 5 5 5 6 6 6 6 6 6 6 6 6 6 6 6 6 6 5 5 5 5 5 5 5 5 5 5 6 6 6 7 8 8 9 9 9 10 10 10 9 10
7 7 6 7 7 7 7 7 8 8 8 8 8 8 8 8 8 8 8 7 7 7 7 8 7 7 7 7 7 7 7 7 8 8 9 10 10 10 11 11 11 12 12
8 7 7 7 8 8 9 10 10 10 10 10 10 10 11 11 10 10 10 10 10 10 10 10 9 10 10 10 10 10 10 10 10 10 11 11 11 12 12 13 14 14 15
8 8 8 9 9 10 10 10 11 11 11 12 12 13 13 13 13 13 13 13 13 12 11 12 12 12 12 12 12 12 12 12 12 13 13 13 13 14 14 15 15 16 16
8 8 8 9 10 10 11 12 12 12 12 13 13 14 14 15 15 15 15 15 15 15 14 14 14 14 14 14 14 14 14 14 15 15 15 16 16 16 16 17 17 17 18
9 9 10 10 11 11 12 12 13 13 13 14 15 16 16 16 16 17 17 17 17 18 18 17 17 18 17 17 17 17 17 17 18 18 18 18 18 18 19 19 20 20 20
10 10 11 12 12 12 12 13 14 15 15 15 16 17 17 17 18 18 19 19 19 19 19 20 20 21 21 20 20 20 21 20 20 20 20 21 21 21 22 22 22 23 23
12 12 13 13 14 14 14 15 16 17 17 17 17 17 17 18 19 19 20 21 20 21 21 21 22 22 23 22 22 22 21 22 22 23 23 23 23 24 24 24 25 25 25
13 14 14 14 14 15 15 16 16 17 18 18 18 18 18 19 20 21 22 22 23 22 22 23 23 24 25 24 23 24 23 23 24 24 25 25 26 26 26 26 26 26 27
13 14 14 14 15 15 16 16 17 17 18 19 19 20 20 20 20 21 22 22 22 22 23 24 24 24 24 24 24 24 24 24 25 26 27 27 28 28 28 28 28 28 28
13 13 14 15 16 16 17 17 18 18 19 20 20 20 21 21 21 21 22 22 22 22 21 22 24 25 24 24 25 25 26 26 26 26 27 29 30 30 30 30 30 29 29
14 14 15 16 17 17 18 18 19 19 20 20 21 21 22 22 22 22 23 24 24 24 23 23 24 26 25 25 26 26 26 27 28 27 29 29 30 30 30 30 31 31 32
15 16 16 17 17 18 18 19 19 20 20 21 22 22 22 23 23 23 23 24 24 25 25 25 25 27 27 27 27 27 27 28 29 30 31 31 30 30 31 32 33 33 33
16 17 17 18 18 18 18 19 20 21 22 22 23 23 23 24 24 24 25 25 25 26 25 26 26 27 29 29 29 28 28 29 29 30 31 30 30 30 31 32 33 34 34
16 17 18 19 19 19 19 20 20 22 23 24 24 24 24 25 24 24 25 25 26 27 27 28 28 28 30 29 29 29 30 30 31 31 30 29 30 31 32 33 34 35 35
17 18 19 19 20 20 20 21 22 23 23 23 23 24 24 24 24 25 26 26 26 27 27 27 28 29 29 29 29 30 30 30 31 31 31 31 32 32 33 34 35 35 36
19 19 19 19 20 21 21 22 23 23 23 23 23 24 24 25 25 26 26 26 27 27 27 26 27 28 29 29 29 30 30 30 31 32 32 32 33 33 34 36 36 37 37
19 20 20 21 21 22 22 23 23 24 24 23 23 23 24 24 24 25 26 26 26 26 26 26 27 28 29 29 29 30 31 31 32 33 33 34 35 35 36 36 37 37 37
20 21 21 22 23 23 23 23 23 23 23 23 23 23 23 23 24 24 25 25 25 26 26 26 27 28 28 29 30 31 31 32 32 33 34 35 36 36 37 37 38 38 39
22 22 23 23 23 24 24 24 23 23 23 22 23 23 23 22 23 24 24 25 25 25 26 27 27 28 29 30 31 32 33 34 34 35 35 36 36 36 37 38 39 39 40

GEFSMA_500_meanwind_180.txt.gz
Wind_Speed
1 1 1 1 1 2 1 1 2 2 2 2 2 1 1 1 2 2 2 2 2 2 2 1 1 1 0 1 2 2 3 3 3 3 3 4 4 4 4 3 3 3 3
1 1 1 1 1 1 0 0 0 1 1 1 1 0 1 1 1 1 2 2 1 1 1 1 0 1 1 1 2 2 3 4 4 4 4 4 5 5 4 4 4 4 4
2 1 1 1 1 0 1 1 1 0 0 0 0 1 1 1 1 1 1 1 1 1 1 1 1 1 1 2 2 3 4 4 5 5 5 5 5 5 5 5 5 5 6
2 2 2 1 1 1 2 2 2 2 2 1 1 1 2 2 2 2 2 2 2 2 2 2 2 2 2 3 3 4 4 5 5 6 6 6 6 6 6 6 7 7 7
2 3 3 2 2 2 3 3 3 3 3 3 3 3 3 3 3 4 4 4 4 4 4 4 4 4 4 4 4 5 5 5 6 7 8 8 8 8 8 8 8 9 9
3 3 3 4 3 3 4 4 4 4 4 5 5 5 5 6 6 6 6 6 6 6 6 6 6 6 6 6 6 6 6 7 7 8 9 10 10 10 10 10 10 10 11
3 3 4 4 4 4 4 4 5 5 6 6 7 7 7 7 8 8 8 8 8 8 8 8 9 9 9 9 9 9 9 9 9 9 10 11 12 12 12 12 12 12 13
4 4 4 4 5 5 6 6 6 7 8 8 9 9 9 10 10 10 11 10 10 10 10 10 11 11 11 12 12 12 12 12 11 12 12 12 13 14 14 14 14 14 14
5 5 5 6 7 7 7 7 8 8 9 9 10 10 11 12 12 12 13 13 12 12 12 13 13 14 14 13 13 13 14 14 14 14 14 14 15 15 15 16 16 16 16
4 5 6 6 7 7 8 9 9 10 11 11 12 12 13 13 14 14 15 15 14 15 15 15 15 15 16 16 16 16 16 16 16 16 16 16 17 17 17 17 18 18 18
4 4 5 5 6 6 8 9 10 11 11 12 13 14 14 15 15 14 14 15 16 17 17 17 17 18 19 19 18 19 19 19 19 19 19 19 19 19 19 20 20 20 20
4 4 5 6 6 8 9 10 10 11 12 13 14 15 15 15 16 16 15 16 16 18 18 19 20 20 20 21 20 20 20 21 21 21 21 22 21 21 21 21 21 21 22
5 5 6 7 8 9 10 11 12 12 13 14 14 15 15 15 16 17 17 17 18 19 19 20 20 21 21 21 21 22 22 22 23 23 23 23 23 23 22 23 23 23 24
6 6 7 9 9 10 11 11 12 13 14 14 15 15 16 16 17 17 18 19 19 19 19 20 21 20 20 21 22 23 23 24 24 24 25 25 24 24 24 24 25 25 26
7 7 8 9 10 10 11 11 12 13 14 15 16 16 17 18 18 18 19 19 19 20 20 21 21 20 20 22 23 23 24 25 25 26 27 26 26 26 26 27 27 28 28
8 8 8 9 10 11 12 12 13 13 14 15 16 17 18 18 18 19 19 19 19 20 21 22 23 23 23 22 22 23 24 25 26 27 28 29 29 29 29 29 29 30 30
8 8 9 10 11 11 12 13 14 15 16 16 17 18 19 20 20 20 20 20 21 21 21 21 22 22 23 23 23 23 24 26 27 28 29 29 30 31 31 32 32 32 32
8 9 10 11 12 12 13 14 15 16 17 18 18 19 19 20 20 20 21 21 22 22 22 23 23 24 24 25 25 25 26 27 27 28 29 29 30 32 33 33 33 33 34
10 10 10 11 12 13 14 14 15 16 17 18 19 20 19 20 19 20 21 21 22 23 23 23 24 25 26 26 27 27 27 27 27 27 29 30 30 30 32 33 34 34 35
10 11 11 12 13 14 15 15 15 16 17 18 19 18 19 20 20 20 21 21 22 23 24 24 25 26 26 27 28 28 28 28 29 29 30 32 32 31 32 33 34 34 35
11 12 12 12 13 14 15 15 16 17 18 18 19 19 20 20 21 22 22 22 23 23 24 25 26 26 27 28 29 29 29 29 30 31 31 32 32 32 33 34 34 34 35
12 13 13 13 14 15 15 16 17 18 19 19 20 20 20 21 22 23 23 23 23 23 24 25 26 27 27 29 29 30 30 30 31 31 31 32 32 33 34 35 35 36 36
14 13 14 14 15 15 17 17 18 18 19 19 20 20 21 21 22 22 23 23 23 23 24 25 26 27 28 28 29 30 30 30 30 31 31 31 32 33 34 34 35 36 38
14 14 15 16 16 17 17 17 18 18 18 19 20 20 20 20 21 21 21 22 23 23 24 24 25 26 26 27 28 29 30 30 31 31 32 32 33 34 34 34 35 36 37
15 15 16 17 17 18 17 17 18 19 19 20 20 20 20 21 21 21 21 22 23 23 23 24 25 25 27 28 28 28 29 29 30 30 32 33 34 34 35 35 35 36 37
16 17 17 17 18 18 18 18 18 19 19 20 20 20 21 21 21 21 22 22 23 23 24 25 25 26 27 27 28 28 29 30 31 32 33 34 34 35 36 36 37 37 37

GEFSMA_500_meanwind_186.txt.gz
Wind_Speed
3 3 3 3 3 3 3 3 3 2 2 3 3 3 3 3 3 3 3 3 2 2 1 2 2 2 1 1 1 1 2 2 3 3 3 3 4 4 4 4 4 4 3
2 3 3 3 3 3 2 2 1 1 1 1 2 2 2 3 3 2 2 2 2 2 2 2 2 2 2 2 2 3 3 4 4 4 4 4 5 5 5 5 5 5 5
1 1 2 2 2 1 1 0 0 0 1 1 2 2 2 2 2 2 2 3 3 3 2 3 3 3 3 3 4 4 4 5 6 6 5 5 6 6 6 6 7 7 7
0 1 1 1 1 1 1 1 1 2 1 2 2 2 3 3 3 3 3 3 4 4 4 5 5 5 5 5 5 5 6 6 7 7 7 7 7 7 8 8 8 8 8
2 2 3 3 3 3 3 2 3 3 3 4 4 4 5 5 5 5 5 5 6 6 6 7 7 7 6 6 7 7 7 8 8 8 8 9 9 9 10 10 10 10 10
3 4 4 4 5 4 4 4 4 4 5 5 6 6 7 7 7 7 8 8 8 8 8 9 9 9 9 9 9 9 9 10 10 10 10 11 12 12 12 12 12 13 13
4 4 5 5 5 6 5 5 5 6 6 7 8 8 9 9 10 10 10 10 10 10 10 11 11 11 11 11 11 11 12 12 12 12 12 13 13 14 14 14 14 15 16
5 6 5 5 5 6 6 6 6 7 8 9 9 10 11 11 11 11 12 13 13 13 13 13 13 13 14 14 14 14 14 15 15 14 15 15 15 15 16 16 16 17 18
6 5 5 5 6 6 7 7 8 9 9 10 11 11 12 13 13 14 14 14 15 15 15 16 16 16 16 16 16 17 17 17 16 16 17 17 17 17 17 17 18 18 18
4 4 5 6 7 7 8 9 10 10 11 12 12 13 14 14 15 16 16 17 17 17 17 18 19 18 18 18 19 19 19 18 18 17 18 19 19 19 19 19 19 19 20
4 5 5 6 7 8 9 10 10 11 12 13 13 14 14 15 15 16 17 18 18 19 19 19 19 20 20 20 20 20 21 20 20 20 21 21 21 21 21 21 21 22 22
5 6 6 7 7 8 9 10 11 12 13 14 14 15 15 16 17 17 18 18 19 20 21 21 21 20 20 20 20 20 21 22 22 22 22 23 23 23 24 24 24 24 25
6 7 7 8 9 9 10 11 12 13 14 15 16 16 17 17 17 18 18 19 20 21 22 23 23 23 22 22 23 23 23 23 23 24 24 25 26 26 26 26 27 27 27
7 8 8 9 10 10 10 11 13 14 15 15 16 17 18 18 19 19 20 20 20 20 21 22 23 23 23 23 24 25 25 25 25 26 27 27 28 28 28 28 28 28 28
8 8 9 9 9 10 11 12 13 13 14 15 15 16 18 19 19 19 20 21 21 21 22 23 23 24 24 24 25 25 26 26 26 26 27 27 28 28 29 30 30 31 31
8 8 9 9 10 11 12 12 13 15 15 16 17 17 18 19 19 20 21 21 21 22 22 23 24 25 25 26 26 27 27 27 28 28 29 29 30 30 30 31 31 32 32
9 9 10 10 11 12 13 14 15 15 16 17 17 18 18 19 19 20 21 21 22 22 23 23 25 25 26 27 27 28 28 28 29 30 30 30 30 31 31 33 33 33 33
10 10 10 11 12 13 14 15 15 16 17 17 18 18 19 19 20 20 21 21 22 23 23 24 25 26 27 27 27 28 28 28 29 29 30 30 30 31 31 32 33 34 33
11 11 12 12 12 13 14 15 15 16 17 17 18 19 19 19 20 21 22 22 23 23 23 24 24 25 26 27 27 28 29 29 30 30 31 31 32 33 33 33 33 34 34
11 11 12 12 12 13 14 15 15 16 18 19 19 20 20 20 21 21 22 23 23 23 23 24 25 25 25 26 27 29 30 30 31 31 32 33 33 34 34 33 33 33 34
11 11 12 12 13 13 14 16 16 17 18 19 20 20 20 20 21 21 22 23 23 23 24 24 24 25 25 27 28 29 30 31 32 33 34 35 35 35 34 34 34 34 35
12 12 12 13 14 15 16 17 18 18 19 19 19 20 20 20 21 22 22 23 23 23 24 24 25 25 26 27 28 29 30 31 32 33 34 34 35 34 34 34 35 35 36
14 14 14 14 15 16 17 18 18 19 19 19 20 20 21 21 22 22 22 23 23 23 24 24 25 26 27 28 29 30 30 31 31 32 32 33 33 33 34 34 34 35 36
14 14 15 15 15 16 17 17 19 20 20 20 20 21 22 22 22 23 23 24 24 24 24 25 26 27 28 28 29 30 31 31 32 32 33 33 33 33 33 34 34 35 36
15 16 16 16 16 17 17 18 19 19 20 21 21 22 22 22 23 23 24 24 24 25 25 26 27 27 28 28 29 30 31 31 31 32 32 32 32 33 33 34 35 36 36
16 17 17 17 18 18 18 19 20 20 20 21 21 22 23 23 24 24 24 25 25 25 26 26 27 28 29 29 29 31 31 31 31 31 31 32 32 33 33 34 35 35 35

GEFSMA_500_meanwind_192.txt.gz
Wind_Speed
3 3 4 5 5 5 5 5 4 4 3 3 3 3 2 2 2 2 1 1 0 1 1 1 1 1 0 0 1 2 2 2 3 3 4 5 5 5 5 5 4 4 4
2 3 4 4 5 4 4 4 3 2 2 1 1 1 1 0 0 1 0 1 1 1 2 2 2 2 2 2 3 3 4 4 4 4 5 6 6 6 7 7 7 6 6
2 3 3 4 4 4 3 3 2 2 1 1 1 1 1 1 2 2 2 2 2 2 3 3 3 4 4 4 4 4 5 5 5 6 6 7 7 8 8 8 8 8 8
2 3 3 4 4 4 3 2 2 1 1 2 2 2 2 2 3 4 4 4 4 4 5 5 6 6 6 6 6 6 6 6 6 6 7 8 9 9 10 10 10 10 10
2 3 4 4 4 4 3 3 3 3 3 3 3 4 4 4 5 5 6 6 6 7 7 8 8 8 7 8 8 8 9 9 8 8 9 10 11 11 11 12 12 12 12
2 2 3 4 4 4 4 4 4 4 4 4 5 5 6 6 7 7 7 8 9 9 9 10 10 10 10 10 10 11 11 11 11 10 11 12 13 13 13 13 14 14 14
3 2 2 3 4 5 5 5 5 5 6 6 6 7 8 8 9 9 10 10 10 11 11 12 12 12 13 12 13 13 13 13 13 13 13 13 14 14 14 14 15 16 16
3 3 3 4 5 5 6 6 6 7 7 7 8 8 9 10 11 11 11 12 13 13 13 14 14 15 15 14 15 15 15 16 15 15 15 15 15 16 16 17 17 17 18
3 4 4 4 5 6 6 7 8 8 8 8 9 10 10 12 13 13 13 14 14 15 15 15 16 17 17 17 17 17 17 17 17 17 18 18 18 18 18 18 19 19 19
5 5 5 5 6 7 7 8 8 9 9 9 10 11 11 12 13 14 15 15 15 16 16 17 18 18 19 19 19 19 19 19 19 20 20 20 20 20 20 20 21 21 22
6 6 6 6 6 7 8 9 9 9 10 11 12 12 13 13 14 15 16 16 17 17 18 18 18 19 20 20 21 20 20 21 21 21 21 21 22 22 22 23 23 24 24
7 7 7 7 7 8 8 9 9 10 11 12 13 13 13 14 15 16 17 17 18 18 18 19 19 20 19 20 20 21 21 22 23 23 23 24 24 23 23 24 25 26 26
8 7 8 8 8 9 9 10 10 11 11 12 13 14 15 15 16 16 17 17 18 18 19 19 19 20 20 21 21 21 23 24 24 24 25 25 25 25 25 26 26 27 28
9 8 9 9 9 9 10 11 11 11 12 13 14 15 15 15 16 16 17 18 18 17 19 19 20 20 21 22 22 23 24 24 25 26 26 26 26 26 27 27 28 29 29
9 9 9 9 10 10 11 11 11 12 13 14 14 15 15 16 16 17 17 18 17 17 18 19 20 21 22 23 23 23 23 24 25 26 27 27 27 28 29 30 30 31 31
9 9 9 9 10 11 12 12 12 13 14 15 15 16 16 17 17 17 17 18 18 18 19 20 21 22 22 23 24 24 24 25 26 26 26 26 27 29 30 30 30 31 32
9 9 9 10 11 11 12 12 13 14 14 15 15 16 17 17 16 17 17 18 19 19 20 20 21 22 22 23 24 25 25 25 25 26 26 27 28 29 29 30 31 32 32
10 10 10 10 11 12 12 13 13 14 15 15 16 16 17 17 17 18 18 19 19 20 20 20 21 22 23 23 24 24 24 25 25 26 27 28 28 29 29 30 31 32 33
10 10 11 12 12 12 12 13 14 15 15 16 16 16 17 17 18 19 19 19 19 20 20 21 22 22 23 23 24 24 25 25 26 27 28 29 30 30 31 32 32 32 33
11 11 12 12 12 12 13 14 14 14 15 16 16 17 18 18 18 19 19 20 20 21 22 22 22 23 23 24 24 25 26 27 28 29 30 30 31 32 33 33 33 33 33
12 13 13 13 13 13 13 14 14 15 16 17 18 18 18 18 18 19 20 20 21 22 22 22 23 24 24 25 25 26 27 28 29 30 30 31 32 33 33 33 32 33 33
13 13 13 13 13 14 14 14 15 16 17 18 18 19 19 19 20 20 20 21 21 22 22 23 24 25 25 26 27 27 27 28 29 29 30 31 32 32 33 33 33 33 33
14 14 14 14 14 15 16 16 16 17 18 18 18 19 19 20 20 21 21 21 22 22 23 24 24 25 26 27 28 28 28 29 29 30 31 31 32 32 32 32 32 32 33
15 15 15 15 16 16 17 17 18 18 19 19 19 20 21 21 22 22 22 22 23 23 24 24 25 26 27 27 28 28 28 29 30 30 30 30 31 31 31 30 30 31 32
15 16 16 16 16 17 17 18 19 19 19 20 20 21 21 22 22 22 22 23 23 23 24 25 26 27 27 28 28 29 29 29 29 30 30 30 30 29 30 30 30 31 32
16 16 17 17 18 18 18 19 19 19 20 20 20 21 22 22 23 23 23 24 24 24 25 25 26 27 28 28 29 29 29 29 29 29 30 30 29 29 29 29 29 30 30

GEFSMA_500_meanwind_198.txt.gz
Wind_Speed
1 1 2 2 3 3 3 3 2 3 3 3 3 3 2 2 2 1 1 1 1 2 2 2 2 3 3 3 3 3 4 4 4 4 4 5 5 6 6 5 5 6 6
1 1 1 2 2 2 2 1 1 1 2 1 1 1 1 1 1 1 2 2 2 2 3 3 3 4 4 4 4 5 5 5 5 5 5 6 6 7 7 7 8 8 8
2 1 1 1 2 2 2 1 1 1 1 1 1 2 2 2 2 3 3 3 3 4 4 4 4 5 5 5 5 6 6 6 7 7 7 7 8 9 9 9 10 10 10
2 1 1 1 2 2 2 2 1 1 2 2 2 3 4 4 4 4 4 4 5 5 6 6 6 6 6 6 7 7 7 8 9 9 9 10 10 10 11 11 11 11 11
2 2 1 2 2 3 3 3 2 2 3 3 3 4 4 5 5 6 6 6 6 7 7 7 8 8 8 8 9 9 10 10 10 11 11 11 11 11 12 12 12 13 13
2 2 2 2 2 3 3 4 4 4 4 5 5 5 6 6 7 7 7 7 8 8 8 9 9 10 10 10 11 12 11 12 12 12 12 12 12 13 13 13 13 13 14
3 3 3 2 3 3 4 5 6 6 6 6 6 7 8 9 8 8 8 8 9 10 10 10 11 11 11 12 13 13 13 13 14 13 13 14 15 15 15 15 15 16 16
4 4 4 4 5 5 6 7 7 8 8 8 8 8 9 9 9 9 9 9 9 10 11 11 12 13 13 13 13 13 14 14 15 15 16 16 17 18 17 17 17 18 19
4 5 5 5 6 6 7 7 8 8 9 9 9 10 10 10 10 10 10 10 10 11 12 13 13 14 14 14 15 15 15 15 16 17 18 18 18 20 21 20 20 20 20
5 6 6 5 6 7 7 8 8 9 9 10 10 10 11 11 11 11 12 12 12 13 14 14 15 15 15 15 16 17 16 17 17 18 19 19 20 20 21 22 23 22 22
6 6 6 6 7 7 8 8 9 9 10 11 11 11 11 11 11 11 12 13 14 15 15 15 15 16 17 16 16 16 16 17 18 19 20 21 21 22 23 23 24 24 25
6 7 7 7 8 8 8 9 9 10 11 11 11 11 11 11 12 13 13 14 15 15 16 16 16 15 15 15 15 16 17 18 19 21 21 22 22 23 24 25 25 26 26
7 8 8 8 9 9 9 9 9 10 10 11 11 12 13 13 13 14 14 15 15 16 17 16 16 15 15 15 16 16 17 18 19 21 21 22 23 24 25 26 26 26 27
8 8 9 9 10 10 10 10 10 11 11 12 12 13 14 14 14 14 15 15 16 16 16 16 16 16 16 16 17 18 19 19 20 21 21 22 22 23 25 25 25 26 26
9 9 10 10 10 10 11 10 11 11 12 12 12 13 14 14 15 15 16 16 16 16 16 16 16 17 17 18 18 19 20 20 21 22 22 22 23 24 24 24 25 25 27
10 11 10 11 11 10 10 11 12 12 12 12 13 14 15 16 16 17 16 16 16 16 16 17 18 18 18 19 20 20 20 20 21 22 22 23 24 24 25 25 26 26 27
11 11 11 11 11 11 11 12 12 13 13 14 15 15 16 17 17 17 17 17 17 17 17 18 19 19 19 20 20 20 21 21 22 23 24 24 24 25 26 26 27 28 28
12 12 11 12 12 12 12 12 12 13 14 14 15 16 17 17 17 17 17 17 17 18 19 19 19 19 20 21 22 22 22 23 23 24 25 26 26 27 27 27 28 28 30
12 12 12 12 13 13 13 13 14 14 15 15 16 16 16 17 17 17 17 17 18 19 20 20 21 21 22 22 23 23 24 25 25 26 26 26 27 27 28 29 29 30 30
13 13 13 13 14 14 14 15 15 15 16 16 16 16 17 17 17 18 18 19 19 20 21 22 23 23 23 23 23 24 25 26 26 27 27 27 28 29 29 30 30 31 31
15 15 14 14 14 14 14 15 15 15 16 16 17 17 18 18 18 19 19 20 20 21 22 22 23 23 23 24 25 25 26 27 28 28 29 29 29 29 30 31 31 31 31
15 16 15 15 15 15 15 15 16 16 16 17 18 18 19 19 20 20 20 20 21 22 22 22 23 24 24 24 25 26 27 28 29 29 29 30 30 30 30 30 31 31 31
16 16 17 16 16 17 17 16 17 17 17 18 18 19 20 20 20 20 21 21 22 22 23 23 23 24 25 25 26 27 28 29 29 30 30 30 30 30 30 30 30 30 30
17 18 18 17 17 18 18 18 18 18 19 19 20 21 21 21 21 21 22 22 23 23 23 23 24 24 25 26 27 27 28 29 30 30 30 30 30 30 30 30 30 30 30
18 18 18 18 18 18 18 19 19 19 19 20 20 21 21 21 22 22 23 23 24 24 24 24 25 25 26 26 27 28 29 30 30 30 30 30 30 30 30 30 30 30 30
20 19 19 19 19 19 19 19 20 20 20 20 21 22 22 22 23 23 24 24 24 24 25 25 25 26 27 28 28 29 30 31 31 31 30 30 30 30 30 30 30 30 30

GEFSMA_500_meanwind_204.txt.gz
Wind_Speed
2 3 3 4 3 3 2 2 3 3 3 3 3 2 2 1 1 1 1 1 1 1 1 2 2 3 3 3 4 4 4 4 4 5 5 5 6 6 7 7 7 8 8
2 3 3 4 3 2 2 1 1 2 2 2 2 2 1 1 1 2 2 2 2 2 3 3 4 4 4 4 5 5 5 5 6 6 7 7 7 8 8 9 9 9 10
2 2 3 3 3 2 2 1 1 1 1 1 1 1 1 1 2 3 3 3 3 4 4 5 5 5 5 6 6 6 6 7 7 8 9 9 9 9 9 10 10 10 11
3 3 4 3 3 3 2 1 1 1 0 1 1 1 2 3 3 4 4 5 5 5 6 7 7 6 6 7 7 7 8 9 9 9 10 11 10 10 10 11 11 11 11
3 3 3 2 3 3 3 2 2 2 2 3 3 4 4 5 5 6 6 6 7 8 8 8 8 8 8 8 9 10 10 11 11 11 11 11 11 12 12 12 12 13 13
2 2 2 1 2 2 2 3 3 3 4 4 5 5 6 6 6 7 7 8 8 8 9 9 9 9 9 10 11 11 11 11 12 12 13 14 14 14 14 14 14 15 15
1 1 0 1 2 2 2 3 4 5 5 6 6 7 7 7 7 7 7 8 9 9 9 10 10 11 11 11 11 12 13 12 13 13 14 15 15 16 16 16 17 17 17
0 1 1 2 2 3 3 4 5 6 7 7 7 8 8 8 8 8 8 9 9 9 10 11 12 12 12 12 13 14 14 14 14 15 16 16 17 17 18 18 19 19 20
1 1 2 2 3 4 4 5 5 6 7 7 8 8 9 9 9 9 10 10 10 10 11 11 11 12 13 14 15 15 16 16 16 16 17 19 19 19 19 19 20 20 20
2 2 3 3 4 4 5 6 6 7 7 8 8 9 9 10 10 11 11 11 11 11 12 12 13 14 14 15 15 15 16 16 16 16 17 18 18 20 20 20 21 22 22
3 4 4 4 5 6 6 7 7 8 8 9 9 10 10 10 11 12 12 12 11 12 12 13 14 14 14 15 15 16 16 16 17 18 18 19 19 20 21 22 22 24 24
4 5 5 5 6 7 7 8 8 9 9 10 10 11 11 11 11 11 12 12 12 13 12 13 14 15 15 14 15 15 16 17 18 19 19 19 19 20 20 21 23 24 25
5 5 5 6 7 7 8 8 8 8 8 9 9 10 11 11 12 12 12 12 13 13 13 13 13 14 14 15 15 15 16 17 17 18 20 20 20 20 21 22 23 24 25
5 5 6 6 7 7 7 8 8 8 8 9 9 10 11 12 12 12 12 13 13 13 13 13 14 14 15 14 14 15 16 17 18 19 20 20 21 21 21 22 23 24 25
6 6 6 6 7 8 9 9 9 9 9 10 10 11 12 12 12 12 13 13 14 14 13 14 14 15 15 15 16 16 17 17 18 20 20 20 20 21 22 23 23 24 25
7 7 7 7 8 9 10 10 9 10 10 11 11 12 12 12 12 13 13 14 14 15 15 15 16 16 16 17 18 18 19 19 19 20 21 21 22 23 24 25 25 26 27
7 7 7 8 8 9 9 9 9 10 11 11 12 12 12 12 13 13 13 14 15 15 16 16 17 17 17 18 19 19 19 20 21 21 22 23 23 24 25 26 26 27 28
9 8 8 8 8 9 9 9 9 10 11 11 12 12 12 12 13 13 14 14 15 15 16 17 18 18 19 19 19 20 21 21 22 22 23 23 24 25 26 26 27 28 29
9 9 9 9 9 9 9 10 10 11 11 12 13 13 13 13 14 14 14 15 15 16 16 18 18 19 20 20 21 21 22 22 22 23 24 25 26 26 27 27 28 28 28
11 10 10 9 9 10 10 11 11 12 12 12 13 13 14 14 14 14 15 16 16 17 17 18 19 20 20 21 22 22 23 23 24 25 25 26 27 27 28 28 28 29 29
11 11 10 10 10 11 11 12 12 12 12 13 13 14 14 14 15 15 16 16 17 17 18 18 19 20 21 21 22 22 23 24 25 26 27 28 28 28 29 29 29 29 29
11 11 11 12 12 12 12 12 13 13 13 13 14 14 15 15 16 16 17 17 17 18 18 19 19 20 21 22 22 23 23 24 26 27 28 28 28 28 29 29 29 29 29
12 12 12 12 13 13 13 13 13 14 14 14 15 15 16 16 16 16 17 17 18 19 19 20 19 20 21 22 23 24 24 25 26 26 27 28 28 28 28 28 28 28 29
13 13 13 13 14 13 14 14 14 15 14 14 15 15 16 16 17 18 18 18 18 19 20 21 21 21 22 23 24 25 26 27 27 28 28 28 28 28 28 29 29 28 29
14 15 15 15 15 15 15 15 15 15 15 15 16 16 17 17 18 18 19 19 19 20 20 21 21 21 22 24 25 26 27 27 28 28 28 28 29 29 29 29 29 29 29
15 15 16 16 16 16 16 16 16 16 16 16 17 17 18 18 19 19 19 20 20 20 21 21 22 22 23 24 25 26 27 27 28 28 29 29 29 29 29 29 29 28 28

GEFSMA_500_meanwind_210.txt.gz
Wind_Speed
3 3 4 4 3 3 3 2 2 2 2 2 2 1 1 1 1 1 1 2 2 2 2 3 3 3 3 4 4 4 4 5 5 6 6 7 7 7 7 7 8 8 8
2 2 3 3 3 2 2 2 1 1 1 1 1 2 2 2 2 2 2 3 4 4 4 4 4 4 4 5 5 5 5 6 6 6 7 7 8 8 8 8 9 9 9
1 2 2 3 3 2 2 1 0 0 1 1 2 2 2 2 2 3 4 4 5 5 5 5 5 6 6 6 6 6 7 7 7 8 8 9 9 9 9 10 10 10 10
1 1 2 2 3 3 2 2 1 1 2 2 3 3 2 3 4 4 5 4 5 6 6 6 7 7 8 7 7 8 8 8 8 9 9 9 10 10 11 11 11 11 12
1 1 2 2 3 3 3 3 3 3 3 4 4 4 4 5 5 6 7 7 7 7 7 8 8 9 9 9 9 9 9 9 10 11 10 10 11 12 12 13 13 13 14
1 0 1 1 2 3 3 4 4 5 5 5 6 6 6 6 7 7 8 8 8 8 9 9 10 10 10 10 10 11 11 12 12 13 13 13 14 14 14 14 15 15 16
1 1 1 2 3 4 4 5 5 6 6 6 7 8 8 8 9 9 9 10 10 10 11 11 12 11 11 12 12 12 13 13 14 15 16 16 16 16 17 18 17 17 17
2 2 3 3 4 4 5 5 6 6 7 8 9 9 9 9 10 11 11 11 12 12 13 13 13 13 13 13 14 14 14 15 16 16 17 18 18 18 18 19 19 20 19
3 3 4 4 5 5 6 6 7 8 8 8 9 10 10 11 11 11 12 13 13 13 13 14 15 14 14 14 14 15 15 16 17 17 18 19 19 18 19 20 21 21 21
4 4 5 5 6 6 7 7 8 9 9 10 11 11 12 12 12 13 13 13 14 15 15 15 15 15 15 15 16 17 17 17 17 18 19 19 20 20 20 21 22 22 21
5 6 6 6 6 7 7 8 8 9 10 11 12 12 13 14 14 14 14 14 15 15 15 14 14 15 15 16 16 17 17 18 18 19 19 19 20 21 21 21 22 22 22
7 7 6 7 7 8 9 9 9 9 10 11 12 13 14 14 15 16 15 15 16 15 15 15 15 16 16 17 17 17 17 18 18 18 19 20 21 21 21 22 22 23 23
7 7 7 7 8 9 10 10 10 11 11 12 12 13 13 14 15 15 15 15 16 16 16 16 16 16 16 16 16 17 17 18 18 18 19 20 21 22 22 23 23 23 24
8 8 8 8 9 9 10 10 11 11 12 12 12 13 13 14 15 15 15 16 16 16 16 17 16 16 16 16 16 17 17 18 19 19 20 21 21 22 22 23 23 24 24
9 9 9 9 9 9 10 10 11 12 12 12 13 13 13 14 15 15 15 15 16 16 17 17 17 16 17 17 17 18 19 19 19 20 21 22 22 23 23 23 24 25 25
9 9 9 10 10 10 11 11 11 12 12 12 13 13 14 15 15 16 16 16 17 17 17 17 17 18 18 18 18 19 19 20 21 21 22 23 23 24 24 24 25 26 27
10 10 9 10 11 11 11 11 11 12 12 12 13 14 15 15 16 16 16 16 17 17 17 17 18 19 19 19 19 19 20 21 22 23 22 23 23 24 25 25 26 27 28
12 12 11 11 11 11 11 12 12 12 12 13 14 14 14 15 15 15 16 16 17 17 18 18 19 19 19 19 20 20 21 22 22 23 24 24 25 25 26 27 28 28 29
13 13 12 12 11 11 11 11 11 12 12 13 13 14 15 16 15 16 16 17 17 17 18 18 19 19 20 20 20 21 22 22 23 24 24 25 26 26 27 28 28 29 29
14 13 13 13 12 11 12 12 13 13 13 13 14 15 15 16 16 17 17 17 17 17 18 18 18 19 19 20 21 21 22 23 24 24 25 25 26 27 28 28 29 29 29
15 14 14 12 12 12 13 13 14 14 14 15 15 16 16 16 16 17 16 17 17 17 18 18 19 19 20 20 21 21 22 23 23 25 26 26 27 28 29 29 29 29 30
16 14 13 13 13 13 13 14 14 15 15 15 16 16 16 16 17 17 17 17 17 18 18 18 19 20 20 20 21 22 23 24 25 26 27 27 28 29 29 29 29 29 30
15 14 14 13 13 14 14 15 15 15 16 16 17 16 16 17 18 17 17 18 18 18 18 19 19 20 20 21 22 23 24 25 26 27 28 28 29 29 29 29 29 30 30
15 14 14 14 14 15 15 15 16 16 16 16 17 17 17 18 18 18 18 18 18 18 19 20 20 21 21 22 23 24 25 26 27 27 27 28 28 28 28 28 29 30 30
16 15 14 14 15 16 16 16 16 17 16 17 17 18 18 19 19 18 19 19 19 19 20 21 21 22 22 23 24 25 26 27 27 27 27 28 28 28 28 28 29 29 29
16 16 15 16 16 16 16 16 16 17 17 18 18 18 18 19 19 19 19 19 20 20 21 22 22 23 24 24 24 25 26 26 27 27 27 28 28 29 29 29 29 29 29

GEFSMA_500_meanwind_216.txt.gz
Wind_Speed
5 5 5 5 5 4 4 4 3 3 3 2 1 1 1 1 0 0 1 1 2 2 3 3 4 4 4 4 4 5 5 5 5 6 6 7 6 7 7 7 8 8 8
4 4 4 4 3 3 3 3 3 2 1 0 0 0 1 1 1 1 1 2 2 3 4 4 5 5 5 5 6 6 6 6 7 7 7 7 8 7 8 8 8 8 9
4 4 3 3 3 3 3 2 2 1 1 1 1 2 2 2 2 2 3 3 4 4 5 6 6 6 6 6 7 7 7 7 7 7 8 8 8 9 10 10 9 10 10
2 3 3 3 3 3 3 3 2 2 3 2 2 3 3 3 3 4 4 5 5 6 7 7 7 6 7 8 8 9 9 9 9 8 8 9 9 10 11 11 11 11 12
1 2 2 2 3 3 3 4 4 4 4 4 4 4 5 5 5 6 6 6 7 8 8 8 8 8 8 10 10 10 10 10 10 10 10 11 11 12 12 12 13 14 14
0 1 2 2 3 3 4 4 4 4 4 5 5 6 6 6 7 8 8 8 8 9 9 9 9 9 10 11 11 11 12 13 13 13 13 13 13 13 13 14 15 15 15
1 1 2 2 3 4 4 5 5 5 5 6 6 6 7 8 8 9 9 10 10 10 10 11 11 12 12 12 13 13 14 14 14 15 14 14 15 15 15 15 16 16 16
2 2 2 3 4 4 5 6 6 6 7 7 7 8 8 9 10 10 10 11 12 12 12 13 13 13 14 14 14 15 15 14 14 15 15 16 16 16 17 17 16 17 17
3 3 4 4 4 5 6 7 7 7 8 9 9 9 9 10 11 11 12 12 13 14 14 15 15 15 15 15 15 15 15 15 15 16 16 17 16 16 17 17 17 17 18
4 4 4 5 6 6 7 8 8 9 9 10 10 11 11 12 13 13 13 14 15 16 16 16 16 16 16 16 16 16 16 17 16 16 16 17 17 17 18 18 18 18 19
4 4 5 6 6 7 7 8 9 9 9 10 10 11 12 13 14 14 15 15 16 16 17 16 16 16 16 16 16 16 17 17 16 17 18 18 18 18 19 19 18 19 20
5 5 6 6 7 7 7 8 9 9 10 11 11 12 12 13 14 15 16 16 16 16 16 16 16 16 17 17 17 17 17 17 17 17 17 17 18 19 19 19 20 20 21
6 6 7 7 8 8 9 9 10 10 11 11 12 12 13 14 15 15 16 16 16 16 16 16 16 16 16 17 17 17 17 17 17 17 17 18 18 19 20 21 21 22 22
7 7 7 8 8 9 9 10 11 11 11 12 12 12 13 14 15 16 16 16 16 16 16 16 16 16 16 16 17 18 18 18 18 18 18 18 19 20 20 21 21 22 23
8 8 8 8 9 9 10 11 11 11 12 12 13 13 13 14 15 15 15 16 16 16 16 16 17 17 16 17 17 18 18 18 18 19 19 19 20 21 22 22 22 23 24
10 10 10 10 10 10 10 11 11 12 13 13 13 14 13 14 14 14 15 15 15 16 16 17 17 18 17 16 17 17 17 18 18 19 20 20 21 21 22 22 23 23 24
11 11 10 11 11 11 11 11 12 12 13 14 14 14 14 14 14 15 15 15 15 15 16 16 16 17 17 17 17 18 19 19 20 21 21 21 21 22 23 23 24 24 24
13 13 12 12 12 11 11 11 12 12 12 13 14 13 13 14 14 15 15 15 15 15 15 16 16 17 17 18 18 19 20 20 20 20 21 21 22 23 23 24 25 26 26
14 14 14 13 13 12 12 12 12 13 13 13 13 13 14 14 15 15 15 15 15 16 16 16 16 17 18 18 18 19 19 20 20 20 21 22 23 23 24 25 25 26 27
16 15 15 14 13 13 13 13 14 14 14 14 14 14 14 15 15 15 16 16 16 16 17 17 17 17 17 17 18 18 19 20 20 21 22 23 23 24 25 25 26 27 27
16 15 15 15 14 14 13 14 14 14 14 14 15 15 16 16 16 16 16 16 16 16 16 17 17 17 17 18 18 19 20 20 21 22 23 23 24 25 25 26 27 27 27
18 16 16 15 14 14 14 14 15 14 15 15 15 16 16 16 16 16 16 16 16 16 17 17 17 17 18 18 19 20 20 21 22 23 24 24 25 25 26 26 27 27 27
18 17 17 16 15 15 15 14 14 16 16 16 16 16 16 16 16 17 17 17 17 17 17 18 18 18 18 19 20 20 21 22 23 24 25 25 26 26 26 27 27 27 27
19 18 17 16 16 15 15 15 15 16 16 16 16 16 16 17 17 18 18 17 17 18 18 18 18 19 20 20 21 22 23 23 24 25 25 26 26 27 28 27 27 27 27
19 19 18 17 17 16 16 16 17 17 17 17 17 17 18 18 18 18 18 18 19 19 19 20 20 20 21 21 22 23 24 25 25 25 26 26 27 27 27 27 28 28 28
21 20 19 18 18 17 17 18 18 18 18 18 18 18 19 19 19 19 19 20 20 20 20 21 21 21 22 22 23 23 24 25 26 26 26 27 27 27 28 28 29 29 29

GEFSMA_500_meanwind_222.txt.gz
Wind_Speed
4 4 4 4 4 4 4 3 3 3 2 2 2 2 2 2 1 1 2 2 2 3 3 4 4 4 5 5 5 6 6 6 6 6 6 7 7 7 7 8 8 8 7
2 2 3 3 2 2 2 2 2 1 1 1 2 2 2 2 2 2 3 3 3 4 4 5 6 6 6 6 6 6 7 7 7 8 8 8 8 9 9 9 9 9 9
1 1 1 1 1 1 0 0 0 1 2 2 3 3 3 3 3 3 4 4 5 5 6 6 7 8 7 7 7 8 8 8 9 9 9 9 9 9 10 10 10 10 11
1 0 0 1 1 1 1 1 2 2 3 4 4 4 4 4 5 4 5 5 6 7 7 7 7 8 7 8 8 9 9 9 9 10 10 10 11 11 11 11 11 12 12
1 1 1 1 1 2 2 3 3 4 4 5 5 5 5 5 6 6 6 7 7 8 8 8 9 8 9 9 10 10 11 11 11 11 12 12 13 13 12 12 13 13 13
2 2 2 3 3 3 4 4 4 5 6 6 6 7 7 7 7 7 7 8 8 9 9 10 9 9 10 11 12 12 12 13 13 13 13 13 13 13 13 14 14 14 15
3 3 3 4 5 5 5 5 6 7 7 7 7 7 7 7 8 9 9 9 9 10 11 10 10 11 12 12 13 14 14 14 15 15 15 14 14 14 15 15 15 15 14
4 4 4 4 5 6 6 7 7 8 8 8 8 8 9 9 10 11 11 11 12 13 12 12 13 13 13 14 14 15 15 16 15 15 15 15 15 15 15 15 15 15 16
5 5 6 6 6 6 7 7 8 8 9 9 9 10 10 10 11 12 13 13 13 14 14 15 15 15 15 15 16 16 17 16 16 16 16 16 15 16 16 16 16 16 17
6 6 6 6 7 7 7 8 8 9 10 10 10 11 11 12 12 13 13 14 14 15 15 16 16 16 16 16 16 17 17 16 16 16 16 16 16 16 17 17 17 17 18
8 7 7 7 8 8 8 8 9 10 10 11 11 12 12 12 13 13 14 15 16 16 17 17 16 16 16 17 17 17 16 16 17 16 16 17 17 16 17 17 18 18 18
8 8 8 9 9 9 9 10 10 10 11 11 12 13 13 13 14 14 15 16 16 17 16 17 17 16 16 16 16 16 16 17 17 17 17 17 17 17 17 17 17 17 18
9 9 10 10 10 10 10 11 11 11 11 12 13 14 14 14 15 15 16 16 16 16 16 16 17 16 16 16 16 15 15 16 16 16 17 16 16 17 17 18 17 17 18
11 11 11 10 11 11 11 11 11 12 12 13 13 14 15 15 16 16 17 17 17 17 16 17 16 16 16 16 16 16 15 15 15 16 16 16 16 16 17 16 17 18 19
13 13 13 13 12 12 12 12 12 12 13 13 14 15 15 16 16 16 16 16 16 15 15 15 15 15 15 16 16 15 15 14 15 15 16 17 16 17 17 17 18 19 19
15 14 13 14 14 14 13 13 13 13 14 14 15 15 15 15 16 16 16 16 16 15 14 15 15 16 15 15 15 15 15 16 16 17 17 17 17 17 17 18 18 19 20
16 15 15 15 14 14 14 13 13 14 14 14 15 15 15 16 16 16 16 16 16 16 15 15 16 15 15 15 15 15 16 16 16 17 17 17 17 18 18 19 19 20 20
17 17 16 16 16 15 14 14 14 14 15 15 15 15 15 15 15 15 15 15 16 16 15 15 15 16 15 15 15 16 16 17 17 17 17 17 18 18 19 20 20 21 21
18 18 18 17 17 16 16 16 15 15 16 16 15 15 15 15 15 15 15 15 16 16 15 16 16 16 16 16 16 16 16 17 18 18 18 18 19 20 20 21 21 22 23
19 19 20 19 18 17 17 18 17 17 17 16 16 15 15 15 15 15 16 16 16 16 16 16 16 16 16 17 17 17 17 17 18 18 18 18 19 20 21 22 22 23 24
20 21 21 21 21 20 19 19 18 17 17 16 16 16 16 15 15 16 16 16 16 16 16 16 17 17 17 17 18 18 18 18 18 18 19 20 20 21 22 23 24 24 24
21 21 21 22 22 22 20 18 18 17 17 16 16 16 16 16 16 16 17 16 16 16 16 17 17 17 18 18 18 19 19 19 19 20 20 21 22 22 23 24 24 24 25
22 22 22 22 22 21 20 20 19 18 17 17 17 17 16 17 17 17 17 17 17 17 18 18 17 18 18 19 19 19 20 20 21 21 22 22 23 24 24 25 25 25 24
23 23 23 23 22 22 21 21 20 19 19 19 18 18 18 18 18 18 19 19 19 19 19 19 19 19 19 20 20 21 21 22 22 23 23 24 24 24 25 25 25 25 26
24 24 24 24 23 23 22 21 21 21 20 20 20 20 20 19 20 20 20 20 19 19 19 19 20 20 21 21 22 22 22 23 23 23 24 25 25 26 26 26 26 26 25
25 25 25 25 24 24 23 22 22 21 21 21 21 21 21 21 21 21 21 21 20 20 21 21 22 22 22 22 23 23 23 24 24 24 24 25 26 26 26 25 25 24 24

GEFSMA_500_meanwind_228.txt.gz
Wind_Speed
6 5 5 5 5 4 4 3 3 2 2 2 1 1 1 1 1 1 2 1 2 2 3 3 4 4 4 4 4 4 4 4 4 5 6 6 6 7 7 7 8 8 8
4 4 4 4 4 3 3 2 2 1 1 0 0 1 1 2 2 2 2 2 3 3 3 4 5 5 6 5 5 5 6 6 6 7 7 8 8 8 8 8 9 9 10
3 3 2 2 2 2 2 2 2 1 1 1 1 1 2 3 4 4 4 4 4 4 5 5 6 7 7 7 7 7 7 7 8 8 9 9 9 9 10 10 10 11 11
2 2 2 1 1 1 1 2 2 2 2 2 3 3 4 4 4 5 5 5 6 6 6 6 7 8 8 9 8 8 9 9 10 10 11 11 11 11 11 12 12 12 12
1 1 0 0 1 1 2 2 3 3 3 4 5 5 6 5 6 6 7 7 7 7 7 7 7 8 9 10 10 10 11 11 11 13 13 13 12 13 13 14 14 14 14
2 1 1 2 2 2 3 3 4 4 5 5 6 7 7 8 7 8 8 8 8 8 8 8 9 9 9 9 10 11 12 13 13 13 14 14 14 14 14 14 14 15 15
3 3 2 3 3 4 4 4 5 5 6 6 7 7 8 9 9 9 9 9 10 10 10 10 11 11 11 11 12 13 13 14 14 14 14 14 14 15 15 15 15 15 15
4 4 4 4 4 5 5 5 6 6 7 7 8 8 8 9 9 8 9 9 10 12 12 12 12 13 12 13 13 14 14 15 15 15 14 15 15 15 16 16 15 15 16
5 4 4 5 5 6 6 7 7 7 7 8 8 9 9 9 9 10 11 11 12 12 12 12 13 13 14 14 15 15 15 15 14 14 15 16 16 16 17 16 16 17 17
6 6 5 5 6 7 7 8 9 9 9 9 9 9 10 10 11 11 12 12 13 14 14 14 14 14 14 15 15 15 15 15 15 15 15 15 16 16 17 17 18 18 18
7 7 7 6 6 7 8 8 9 9 9 10 10 11 11 11 12 13 13 13 14 14 15 15 15 15 15 15 14 14 14 14 14 15 15 16 16 17 18 18 18 18 19
8 8 8 8 8 8 8 9 9 9 10 10 11 12 12 12 12 13 13 14 14 14 15 15 15 15 15 14 14 14 14 14 14 14 14 15 16 16 17 17 17 18 18
9 10 9 9 9 9 9 9 10 11 11 11 12 12 12 12 13 13 14 14 14 14 15 15 14 14 14 14 14 14 14 14 14 14 15 16 17 17 16 16 17 17 18
10 10 11 10 10 10 10 10 11 11 11 11 12 12 12 12 13 13 14 15 15 14 14 14 14 14 14 14 14 14 14 15 15 15 16 16 16 16 16 15 17 18 18
11 12 12 12 12 11 11 10 10 11 11 11 12 12 12 13 13 14 14 14 14 14 14 14 14 14 14 14 14 15 14 15 15 15 15 15 15 16 16 17 17 18 19
13 13 13 13 12 12 11 11 11 11 12 12 12 13 13 14 14 14 14 14 14 14 14 15 15 14 14 13 14 14 14 15 15 15 15 15 16 16 17 17 18 18 19
13 14 14 13 13 13 12 12 12 12 12 12 13 13 14 14 14 14 14 14 14 14 15 15 15 14 13 14 14 14 14 14 14 14 15 16 16 16 17 18 19 19 20
13 14 14 14 14 14 14 13 13 13 13 13 13 14 14 14 14 14 14 13 13 14 14 15 14 13 14 14 14 15 15 15 15 15 16 16 17 17 18 19 20 20 20
14 14 15 15 15 15 15 14 14 14 14 14 14 14 14 15 15 14 14 14 13 13 13 14 13 14 14 15 15 15 15 16 16 16 17 17 18 18 19 20 20 20 21
15 15 15 15 16 16 15 15 15 15 15 15 15 15 15 15 15 15 15 14 14 14 14 14 13 14 14 15 15 15 16 17 17 17 17 18 18 18 19 20 20 20 21
16 16 16 16 16 17 16 15 15 15 15 15 16 16 16 15 15 15 15 15 15 15 14 14 14 15 15 15 15 15 16 16 16 17 17 17 18 19 19 20 21 21 22
18 18 18 18 18 18 17 17 16 17 17 17 16 15 15 15 15 15 15 15 15 15 15 14 15 15 16 16 16 17 17 17 17 18 18 18 19 20 20 21 22 23 23
19 19 19 19 18 18 18 18 18 18 18 17 16 15 15 14 14 14 15 14 14 15 15 16 16 16 16 17 17 17 18 18 19 19 19 20 21 21 22 22 23 24 24
20 21 20 20 20 20 20 19 19 19 19 18 16 15 15 15 14 14 15 15 16 16 17 17 17 17 18 18 18 19 19 19 20 20 21 22 22 22 23 24 24 25 25
22 23 22 22 22 23 22 21 20 20 19 17 16 16 16 16 15 16 16 16 17 18 18 18 18 18 19 19 20 20 19 20 20 22 23 23 23 24 24 25 25 25 26
24 24 24 24 24 24 22 22 21 20 20 18 18 17 16 17 17 18 18 18 18 18 19 19 19 20 20 20 20 20 21 21 22 23 23 24 24 25 25 26 26 26 26